Time,TemperatureF,DewpointF,PressureIn,WindDirection,WindDirectionDegrees,WindSpeedMPH,WindSpeedGustMPH,Humidity,HourlyPrecipIn,Conditions,Clouds,dailyrainin,SoftwareType,DateUTC
2013-01-22 00:00:00,22.5,6.2,30.37,North,349,3.0,8.0,49,0.00,,---,0.00,VWS V14.01,2013-01-22 06:00:00,
2013-01-22 00:02:00,22.5,6.2,30.37,NW,317,5.0,7.0,49,0.00,,---,0.00,VWS V14.01,2013-01-22 06:02:00,
2013-01-22 00:03:00,22.5,6.2,30.37,NW,308,4.0,7.0,49,0.00,,---,0.00,VWS V14.01,2013-01-22 06:03:00,
2013-01-22 00:04:00,22.5,6.2,30.37,NW,306,4.0,7.0,49,0.00,,---,0.00,VWS V14.01,2013-01-22 06:04:00,
2013-01-22 00:07:00,22.4,6.6,30.37,NW,325,3.0,7.0,50,0.00,,---,0.00,VWS V14.01,2013-01-22 06:07:00,
2013-01-22 00:08:00,22.4,7.0,30.37,NNW,345,5.0,7.0,51,0.00,,---,0.00,VWS V14.01,2013-01-22 06:08:00,
2013-01-22 00:09:00,22.4,7.0,30.37,NNW,340,5.0,7.0,51,0.00,,---,0.00,VWS V14.01,2013-01-22 06:09:00,
2013-01-22 00:10:00,22.4,6.6,30.37,NW,319,4.0,7.0,50,0.00,,---,0.00,VWS V14.01,2013-01-22 06:10:00,
2013-01-22 00:12:00,22.4,6.2,30.37,NNW,342,2.0,7.0,49,0.00,,---,0.00,VWS V14.01,2013-01-22 06:12:00,
2013-01-22 00:13:00,22.4,6.2,30.37,WNW,301,4.0,7.0,49,0.00,,---,0.00,VWS V14.01,2013-01-22 06:13:00,
2013-01-22 00:14:00,22.4,6.2,30.36,WNW,293,7.0,7.0,49,0.00,,---,0.00,VWS V14.01,2013-01-22 06:14:00,
2013-01-22 00:15:00,22.4,6.2,30.36,NW,325,4.0,7.0,49,0.00,,---,0.00,VWS V14.01,2013-01-22 06:15:00,
2013-01-22 00:17:00,22.4,6.2,30.36,NNW,335,4.0,7.0,49,0.00,,---,0.00,VWS V14.01,2013-01-22 06:17:00,
2013-01-22 00:18:00,22.3,6.1,30.36,NW,308,3.0,7.0,49,0.00,,---,0.00,VWS V14.01,2013-01-22 06:18:00,
2013-01-22 00:19:00,22.3,6.1,30.36,NW,318,3.0,7.0,49,0.00,,---,0.00,VWS V14.01,2013-01-22 06:19:00,
2013-01-22 00:20:00,22.3,6.1,30.36,NW,316,5.0,7.0,49,0.00,,---,0.00,VWS V14.01,2013-01-22 06:20:00,
2013-01-22 00:22:00,22.3,6.5,30.36,NNW,330,3.0,7.0,50,0.00,,---,0.00,VWS V14.01,2013-01-22 06:22:00,
2013-01-22 00:23:00,22.3,6.1,30.36,NNW,340,3.0,7.0,49,0.00,,---,0.00,VWS V14.01,2013-01-22 06:23:00,
2013-01-22 00:24:00,22.3,6.1,30.36,NW,318,5.0,7.0,49,0.00,,---,0.00,VWS V14.01,2013-01-22 06:24:00,
2013-01-22 00:25:00,22.3,6.1,30.36,NNW,345,4.0,8.0,49,0.00,,---,0.00,VWS V14.01,2013-01-22 06:25:00,
2013-01-22 00:28:00,22.2,6.0,30.36,WNW,294,5.0,8.0,49,0.00,,---,0.00,VWS V14.01,2013-01-22 06:28:00,
2013-01-22 00:29:00,22.2,6.4,30.36,NW,308,3.0,5.0,50,0.00,,---,0.00,VWS V14.01,2013-01-22 06:29:00,
2013-01-22 00:30:00,22.2,6.4,30.36,NNW,339,4.0,5.0,50,0.00,,---,0.00,VWS V14.01,2013-01-22 06:30:00,
2013-01-22 00:33:00,22.2,6.0,30.36,NNW,340,3.0,7.0,49,0.00,,---,0.00,VWS V14.01,2013-01-22 06:33:00,
2013-01-22 00:34:00,22.2,6.0,30.36,WNW,303,4.0,7.0,49,0.00,,---,0.00,VWS V14.01,2013-01-22 06:34:00,
2013-01-22 00:35:00,22.2,6.0,30.36,North,349,6.0,9.0,49,0.00,,---,0.00,VWS V14.01,2013-01-22 06:35:00,
2013-01-22 00:38:00,22.2,6.0,30.36,NW,319,4.0,9.0,49,0.00,,---,0.00,VWS V14.01,2013-01-22 06:38:00,
2013-01-22 00:39:00,22.2,6.0,30.36,NW,319,4.0,9.0,49,0.00,,---,0.00,VWS V14.01,2013-01-22 06:39:00,
2013-01-22 00:40:00,22.2,6.0,30.36,NNW,344,6.0,9.0,49,0.00,,---,0.00,VWS V14.01,2013-01-22 06:40:00,
2013-01-22 00:43:00,22.1,5.9,30.36,North,358,3.0,9.0,49,0.00,,---,0.00,VWS V14.01,2013-01-22 06:43:00,
2013-01-22 00:44:00,22.1,5.9,30.36,NNW,330,3.0,9.0,49,0.00,,---,0.00,VWS V14.01,2013-01-22 06:44:00,
2013-01-22 00:45:00,22.1,6.3,30.36,NNW,330,7.0,9.0,50,0.00,,---,0.00,VWS V14.01,2013-01-22 06:45:00,
2013-01-22 00:48:00,22.1,6.3,30.36,WNW,285,4.0,9.0,50,0.00,,---,0.00,VWS V14.01,2013-01-22 06:48:00,
2013-01-22 00:49:00,22.1,5.9,30.36,NW,325,5.0,9.0,49,0.00,,---,0.00,VWS V14.01,2013-01-22 06:49:00,
2013-01-22 00:51:00,22.0,5.8,30.36,WNW,303,6.0,9.0,49,0.00,,---,0.00,VWS V14.01,2013-01-22 06:51:00,
2013-01-22 00:53:00,22.0,5.3,30.36,NW,313,5.0,9.0,48,0.00,,---,0.00,VWS V14.01,2013-01-22 06:53:00,
2013-01-22 00:54:00,22.0,5.3,30.36,WNW,287,1.0,9.0,48,0.00,,---,0.00,VWS V14.01,2013-01-22 06:54:00,
2013-01-22 00:56:00,22.0,5.8,30.36,NW,321,3.0,9.0,49,0.00,,---,0.00,VWS V14.01,2013-01-22 06:56:00,
2013-01-22 00:58:00,21.9,6.1,30.36,NW,325,5.0,5.0,50,0.00,,---,0.00,VWS V14.01,2013-01-22 06:58:00,
2013-01-22 00:59:00,21.9,6.1,30.36,NW,325,2.0,5.0,50,0.00,,---,0.00,VWS V14.01,2013-01-22 06:59:00,
2013-01-22 01:00:00,21.9,6.1,30.36,NW,315,5.0,9.0,50,0.00,,---,0.00,VWS V14.01,2013-01-22 07:00:00,
2013-01-22 01:01:00,21.8,6.0,30.36,WNW,301,6.0,7.0,50,0.00,,---,0.00,VWS V14.01,2013-01-22 07:01:00,
2013-01-22 01:03:00,21.8,6.0,30.36,NW,320,7.0,9.0,50,0.00,,---,0.00,VWS V14.01,2013-01-22 07:03:00,
2013-01-22 01:04:00,21.8,6.0,30.36,NW,308,7.0,9.0,50,0.00,,---,0.00,VWS V14.01,2013-01-22 07:04:00,
2013-01-22 01:06:00,21.8,6.0,30.36,NW,308,7.0,9.0,50,0.00,,---,0.00,VWS V14.01,2013-01-22 07:06:00,
2013-01-22 01:08:00,21.8,6.0,30.36,NW,308,7.0,9.0,50,0.00,,---,0.00,VWS V14.01,2013-01-22 07:08:00,
2013-01-22 01:09:00,21.6,5.8,30.36,NNW,335,4.0,9.0,50,0.00,,---,0.00,VWS V14.01,2013-01-22 07:09:00,
2013-01-22 01:10:00,21.6,5.8,30.36,North,352,6.0,9.0,50,0.00,,---,0.00,VWS V14.01,2013-01-22 07:10:00,
2013-01-22 01:11:00,21.5,5.3,30.36,NNW,330,6.0,9.0,49,0.00,,---,0.00,VWS V14.01,2013-01-22 07:11:00,
2013-01-22 01:14:00,21.5,5.3,30.36,NNW,344,4.0,9.0,49,0.00,,---,0.00,VWS V14.01,2013-01-22 07:14:00,
2013-01-22 01:15:00,21.4,5.2,30.36,NNW,341,5.0,9.0,49,0.00,,---,0.00,VWS V14.01,2013-01-22 07:15:00,
2013-01-22 01:16:00,21.4,5.7,30.36,NNW,335,4.0,9.0,50,0.00,,---,0.00,VWS V14.01,2013-01-22 07:16:00,
2013-01-22 01:19:00,21.3,5.6,30.36,NNW,339,6.0,9.0,50,0.00,,---,0.00,VWS V14.01,2013-01-22 07:19:00,
2013-01-22 01:20:00,21.2,5.5,30.36,NW,318,7.0,10.0,50,0.00,,---,0.00,VWS V14.01,2013-01-22 07:20:00,
2013-01-22 01:22:00,21.2,5.5,30.36,NW,306,8.0,10.0,50,0.00,,---,0.00,VWS V14.01,2013-01-22 07:22:00,
2013-01-22 01:24:00,21.1,5.4,30.36,NNW,330,4.0,10.0,50,0.00,,---,0.00,VWS V14.01,2013-01-22 07:24:00,
2013-01-22 01:25:00,21.0,5.3,30.36,NNW,335,3.0,10.0,50,0.00,,---,0.00,VWS V14.01,2013-01-22 07:25:00,
2013-01-22 01:26:00,21.0,5.3,30.36,NNW,335,5.0,10.0,50,0.00,,---,0.00,VWS V14.01,2013-01-22 07:26:00,
2013-01-22 01:27:00,20.9,5.6,30.36,WNW,303,3.0,10.0,51,0.00,,---,0.00,VWS V14.01,2013-01-22 07:27:00,
2013-01-22 01:29:00,20.8,5.5,30.36,NW,313,4.0,9.0,51,0.00,,---,0.00,VWS V14.01,2013-01-22 07:29:00,
2013-01-22 01:30:00,20.8,5.5,30.36,NNW,335,5.0,9.0,51,0.00,,---,0.00,VWS V14.01,2013-01-22 07:30:00,
2013-01-22 01:31:00,20.7,5.4,30.36,NNW,335,4.0,9.0,51,0.00,,---,0.00,VWS V14.01,2013-01-22 07:31:00,
2013-01-22 01:32:00,20.7,5.9,30.36,NW,311,4.0,9.0,52,0.00,,---,0.00,VWS V14.01,2013-01-22 07:32:00,
2013-01-22 01:34:00,20.6,5.8,30.36,NNW,335,4.0,9.0,52,0.00,,---,0.00,VWS V14.01,2013-01-22 07:34:00,
2013-01-22 01:35:00,20.6,5.3,30.36,NW,315,3.0,9.0,51,0.00,,---,0.00,VWS V14.01,2013-01-22 07:35:00,
2013-01-22 01:36:00,20.5,5.7,30.37,NW,319,3.0,9.0,52,0.00,,---,0.00,VWS V14.01,2013-01-22 07:36:00,
2013-01-22 01:37:00,20.4,6.0,30.36,NW,318,5.0,9.0,53,0.00,,---,0.00,VWS V14.01,2013-01-22 07:37:00,
2013-01-22 01:39:00,20.4,5.6,30.37,NW,319,6.0,9.0,52,0.00,,---,0.00,VWS V14.01,2013-01-22 07:39:00,
2013-01-22 01:40:00,20.4,5.6,30.37,NNW,345,5.0,9.0,52,0.00,,---,0.00,VWS V14.01,2013-01-22 07:40:00,
2013-01-22 01:41:00,20.3,5.5,30.37,NW,325,6.0,9.0,52,0.00,,---,0.00,VWS V14.01,2013-01-22 07:41:00,
2013-01-22 01:42:00,20.3,5.5,30.37,NNW,335,4.0,9.0,52,0.00,,---,0.00,VWS V14.01,2013-01-22 07:42:00,
2013-01-22 01:44:00,20.3,5.9,30.37,NW,320,6.0,9.0,53,0.00,,---,0.00,VWS V14.01,2013-01-22 07:44:00,
2013-01-22 01:45:00,20.2,5.4,30.37,NNW,339,4.0,9.0,52,0.00,,---,0.00,VWS V14.01,2013-01-22 07:45:00,
2013-01-22 01:46:00,20.2,5.8,30.37,North,356,4.0,9.0,53,0.00,,---,0.00,VWS V14.01,2013-01-22 07:46:00,
2013-01-22 01:48:00,20.1,6.1,30.37,North,355,2.0,9.0,54,0.00,,---,0.00,VWS V14.01,2013-01-22 07:48:00,
2013-01-22 01:49:00,20.1,6.1,30.37,North,351,3.0,9.0,54,0.00,,---,0.00,VWS V14.01,2013-01-22 07:49:00,
2013-01-22 01:50:00,20.0,6.0,30.37,North,353,5.0,9.0,54,0.00,,---,0.00,VWS V14.01,2013-01-22 07:50:00,
2013-01-22 01:51:00,20.0,6.0,30.37,NNW,347,3.0,9.0,54,0.00,,---,0.00,VWS V14.01,2013-01-22 07:51:00,
2013-01-22 01:53:00,20.0,6.0,30.37,North,359,2.0,9.0,54,0.00,,---,0.00,VWS V14.01,2013-01-22 07:53:00,
2013-01-22 01:54:00,19.9,6.3,30.37,North,360,3.0,9.0,55,0.00,,---,0.00,VWS V14.01,2013-01-22 07:54:00,
2013-01-22 01:55:00,19.9,5.9,30.37,NW,317,4.0,9.0,54,0.00,,---,0.00,VWS V14.01,2013-01-22 07:55:00,
2013-01-22 01:56:00,19.9,5.9,30.37,NNW,342,3.0,9.0,54,0.00,,---,0.00,VWS V14.01,2013-01-22 07:56:00,
2013-01-22 01:58:00,19.8,5.8,30.37,NNW,341,3.0,5.0,54,0.00,,---,0.00,VWS V14.01,2013-01-22 07:58:00,
2013-01-22 01:59:00,19.8,5.8,30.37,NNW,340,4.0,5.0,54,0.00,,---,0.00,VWS V14.01,2013-01-22 07:59:00,
2013-01-22 02:00:00,19.8,5.8,30.38,NNW,340,1.0,5.0,54,0.00,,---,0.00,VWS V14.01,2013-01-22 08:00:00,
2013-01-22 02:01:00,19.8,6.3,30.37,NW,325,4.0,5.0,55,0.00,,---,0.00,VWS V14.01,2013-01-22 08:01:00,
2013-01-22 02:03:00,19.7,6.2,30.37,North,358,5.0,7.0,55,0.00,,---,0.00,VWS V14.01,2013-01-22 08:03:00,
2013-01-22 02:04:00,19.7,5.8,30.37,NNW,342,4.0,7.0,54,0.00,,---,0.00,VWS V14.01,2013-01-22 08:04:00,
2013-01-22 02:05:00,19.7,5.8,30.37,NNE,14,7.0,8.0,54,0.00,,---,0.00,VWS V14.01,2013-01-22 08:05:00,
2013-01-22 02:07:00,19.7,5.3,30.37,North,350,3.0,8.0,53,0.00,,---,0.00,VWS V14.01,2013-01-22 08:07:00,
2013-01-22 02:08:00,19.6,5.3,30.37,North,2,2.0,8.0,53,0.00,,---,0.00,VWS V14.01,2013-01-22 08:08:00,
2013-01-22 02:10:00,19.6,5.7,30.37,North,360,3.0,8.0,54,0.00,,---,0.00,VWS V14.01,2013-01-22 08:10:00,
2013-01-22 02:12:00,19.5,5.6,30.38,NNW,335,4.0,8.0,54,0.00,,---,0.00,VWS V14.01,2013-01-22 08:12:00,
2013-01-22 02:13:00,19.4,5.5,30.38,NNW,335,7.0,10.0,54,0.00,,---,0.00,VWS V14.01,2013-01-22 08:13:00,
2013-01-22 02:15:00,19.5,4.8,30.38,NNW,335,9.0,10.0,52,0.00,,---,0.00,VWS V14.01,2013-01-22 08:15:00,
2013-01-22 02:16:00,19.4,4.7,30.38,NNW,345,5.0,10.0,52,0.00,,---,0.00,VWS V14.01,2013-01-22 08:16:00,
2013-01-22 02:17:00,19.4,4.7,30.38,NNW,330,4.0,10.0,52,0.00,,---,0.00,VWS V14.01,2013-01-22 08:17:00,
2013-01-22 02:19:00,19.4,4.7,30.38,NNW,335,5.0,10.0,52,0.00,,---,0.00,VWS V14.01,2013-01-22 08:19:00,
2013-01-22 02:20:00,19.4,4.7,30.38,NNW,339,3.0,10.0,52,0.00,,---,0.00,VWS V14.01,2013-01-22 08:20:00,
2013-01-22 02:21:00,19.4,4.7,30.38,North,355,3.0,10.0,52,0.00,,---,0.00,VWS V14.01,2013-01-22 08:21:00,
2013-01-22 02:23:00,19.4,5.1,30.38,NNW,335,3.0,10.0,53,0.00,,---,0.00,VWS V14.01,2013-01-22 08:23:00,
2013-01-22 02:24:00,19.3,5.0,30.38,NNW,339,4.0,10.0,53,0.00,,---,0.00,VWS V14.01,2013-01-22 08:24:00,
2013-01-22 02:26:00,19.2,4.5,30.37,North,6,4.0,10.0,52,0.00,,---,0.00,VWS V14.01,2013-01-22 08:26:00,
2013-01-22 02:28:00,19.2,4.9,30.38,NNW,343,4.0,5.0,53,0.00,,---,0.00,VWS V14.01,2013-01-22 08:28:00,
2013-01-22 02:29:00,19.1,4.8,30.38,NNW,345,4.0,8.0,53,0.00,,---,0.00,VWS V14.01,2013-01-22 08:29:00,
2013-01-22 02:30:00,19.2,4.9,30.37,NW,317,5.0,10.0,53,0.00,,---,0.00,VWS V14.01,2013-01-22 08:30:00,
2013-01-22 02:31:00,19.1,4.4,30.38,NW,307,2.0,8.0,52,0.00,,---,0.00,VWS V14.01,2013-01-22 08:31:00,
2013-01-22 02:33:00,19.1,4.8,30.38,NNW,348,3.0,8.0,53,0.00,,---,0.00,VWS V14.01,2013-01-22 08:33:00,
2013-01-22 02:34:00,19.0,4.7,30.38,North,5,3.0,8.0,53,0.00,,---,0.00,VWS V14.01,2013-01-22 08:34:00,
2013-01-22 02:36:00,19.0,5.1,30.37,NNW,330,4.0,8.0,54,0.00,,---,0.00,VWS V14.01,2013-01-22 08:36:00,
2013-01-22 02:38:00,18.9,4.6,30.38,North,357,4.0,8.0,53,0.00,,---,0.00,VWS V14.01,2013-01-22 08:38:00,
2013-01-22 02:39:00,18.9,4.6,30.38,North,360,5.0,8.0,53,0.00,,---,0.00,VWS V14.01,2013-01-22 08:39:00,
2013-01-22 02:41:00,18.9,4.6,30.38,NNW,346,2.0,8.0,53,0.00,,---,0.00,VWS V14.01,2013-01-22 08:41:00,
2013-01-22 02:43:00,18.8,4.5,30.38,NW,325,1.0,8.0,53,0.00,,---,0.00,VWS V14.01,2013-01-22 08:43:00,
2013-01-22 02:44:00,18.8,4.9,30.38,NNW,335,3.0,8.0,54,0.00,,---,0.00,VWS V14.01,2013-01-22 08:44:00,
2013-01-22 02:46:00,18.8,5.3,30.38,NW,320,2.0,8.0,55,0.00,,---,0.00,VWS V14.01,2013-01-22 08:46:00,
2013-01-22 02:47:00,18.8,5.3,30.38,NW,309,3.0,8.0,55,0.00,,---,0.00,VWS V14.01,2013-01-22 08:47:00,
2013-01-22 02:48:00,18.7,4.8,30.37,NW,304,4.0,8.0,54,0.00,,---,0.00,VWS V14.01,2013-01-22 08:48:00,
2013-01-22 02:49:00,18.7,4.8,30.38,NW,319,5.0,8.0,54,0.00,,---,0.00,VWS V14.01,2013-01-22 08:49:00,
2013-01-22 02:51:00,18.7,4.8,30.38,NW,325,3.0,8.0,54,0.00,,---,0.00,VWS V14.01,2013-01-22 08:51:00,
2013-01-22 02:52:00,18.7,4.8,30.38,NW,325,2.0,8.0,54,0.00,,---,0.00,VWS V14.01,2013-01-22 08:52:00,
2013-01-22 02:54:00,18.7,4.8,30.38,NW,320,4.0,8.0,54,0.00,,---,0.00,VWS V14.01,2013-01-22 08:54:00,
2013-01-22 02:56:00,18.6,4.3,30.38,NW,317,3.0,8.0,53,0.00,,---,0.00,VWS V14.01,2013-01-22 08:56:00,
2013-01-22 02:58:00,18.6,4.7,30.38,NW,310,4.0,8.0,54,0.00,,---,0.00,VWS V14.01,2013-01-22 08:58:00,
2013-01-22 02:59:00,18.6,4.7,30.38,NW,310,3.0,4.0,54,0.00,,---,0.00,VWS V14.01,2013-01-22 08:59:00,
2013-01-22 03:00:00,18.6,4.7,30.38,NW,310,4.0,8.0,54,0.00,,---,0.00,VWS V14.01,2013-01-22 09:00:00,
2013-01-22 03:01:00,18.6,4.3,30.38,WNW,303,3.0,5.0,53,0.00,,---,0.00,VWS V14.01,2013-01-22 09:01:00,
2013-01-22 03:03:00,18.5,4.6,30.38,WNW,299,3.0,5.0,54,0.00,,---,0.00,VWS V14.01,2013-01-22 09:03:00,
2013-01-22 03:04:00,18.5,4.6,30.38,NW,314,2.0,5.0,54,0.00,,---,0.00,VWS V14.01,2013-01-22 09:04:00,
2013-01-22 03:07:00,18.4,4.1,30.38,NW,318,4.0,6.0,53,0.00,,---,0.00,VWS V14.01,2013-01-22 09:07:00,
2013-01-22 03:08:00,18.4,4.1,30.38,WNW,301,4.0,6.0,53,0.00,,---,0.00,VWS V14.01,2013-01-22 09:08:00,
2013-01-22 03:09:00,18.4,4.1,30.38,NW,304,1.0,6.0,53,0.00,,---,0.00,VWS V14.01,2013-01-22 09:09:00,
2013-01-22 03:10:00,18.4,4.6,30.38,NW,304,2.0,6.0,54,0.00,,---,0.00,VWS V14.01,2013-01-22 09:10:00,
2013-01-22 03:12:00,18.4,4.6,30.38,NW,305,3.0,6.0,54,0.00,,---,0.00,VWS V14.01,2013-01-22 09:12:00,
2013-01-22 03:13:00,18.3,4.4,30.38,NW,311,4.0,6.0,54,0.00,,---,0.00,VWS V14.01,2013-01-22 09:13:00,
2013-01-22 03:14:00,18.3,4.1,30.38,NW,317,2.0,6.0,53,0.00,,---,0.00,VWS V14.01,2013-01-22 09:14:00,
2013-01-22 03:15:00,18.3,4.1,30.38,WNW,294,2.0,6.0,53,0.00,,---,0.00,VWS V14.01,2013-01-22 09:15:00,
2013-01-22 03:17:00,18.3,4.1,30.38,NNW,330,4.0,6.0,53,0.00,,---,0.00,VWS V14.01,2013-01-22 09:17:00,
2013-01-22 03:18:00,18.2,4.0,30.38,NW,318,5.0,6.0,53,0.00,,---,0.00,VWS V14.01,2013-01-22 09:18:00,
2013-01-22 03:19:00,18.3,3.6,30.38,NW,318,4.0,6.0,52,0.00,,---,0.00,VWS V14.01,2013-01-22 09:19:00,
2013-01-22 03:20:00,18.3,3.6,30.38,NW,325,4.0,6.0,52,0.00,,---,0.00,VWS V14.01,2013-01-22 09:20:00,
2013-01-22 03:23:00,18.3,4.1,30.38,WNW,302,3.0,6.0,53,0.00,,---,0.00,VWS V14.01,2013-01-22 09:23:00,
2013-01-22 03:24:00,18.3,3.6,30.38,WNW,301,2.0,6.0,52,0.00,,---,0.00,VWS V14.01,2013-01-22 09:24:00,
2013-01-22 03:25:00,18.3,4.4,30.38,WNW,301,3.0,6.0,54,0.00,,---,0.00,VWS V14.01,2013-01-22 09:25:00,
2013-01-22 03:28:00,18.3,3.6,30.38,NW,305,3.0,3.0,52,0.00,,---,0.00,VWS V14.01,2013-01-22 09:28:00,
2013-01-22 03:29:00,18.3,3.6,30.38,NW,305,2.0,3.0,52,0.00,,---,0.00,VWS V14.01,2013-01-22 09:29:00,
2013-01-22 03:30:00,18.3,4.1,30.38,NW,306,4.0,4.0,53,0.00,,---,0.00,VWS V14.01,2013-01-22 09:30:00,
2013-01-22 03:33:00,18.3,4.1,30.37,NW,318,3.0,6.0,53,0.00,,---,0.00,VWS V14.01,2013-01-22 09:33:00,
2013-01-22 03:34:00,18.3,4.1,30.37,NW,318,4.0,6.0,53,0.00,,---,0.00,VWS V14.01,2013-01-22 09:34:00,
2013-01-22 03:35:00,18.2,4.0,30.37,NW,325,4.0,6.0,53,0.00,,---,0.00,VWS V14.01,2013-01-22 09:35:00,
2013-01-22 03:38:00,18.2,3.5,30.37,NW,308,2.0,6.0,52,0.00,,---,0.00,VWS V14.01,2013-01-22 09:38:00,
2013-01-22 03:39:00,18.2,3.5,30.37,NW,307,4.0,6.0,52,0.00,,---,0.00,VWS V14.01,2013-01-22 09:39:00,
2013-01-22 03:41:00,18.2,4.0,30.38,NW,316,2.0,6.0,53,0.00,,---,0.00,VWS V14.01,2013-01-22 09:41:00,
2013-01-22 03:43:00,18.1,3.9,30.37,NNW,330,3.0,6.0,53,0.00,,---,0.00,VWS V14.01,2013-01-22 09:43:00,
2013-01-22 03:44:00,18.1,3.9,30.37,NNW,330,2.0,6.0,53,0.00,,---,0.00,VWS V14.01,2013-01-22 09:44:00,
2013-01-22 03:45:00,18.1,3.9,30.37,NNW,330,4.0,6.0,53,0.00,,---,0.00,VWS V14.01,2013-01-22 09:45:00,
2013-01-22 03:46:00,18.0,3.8,30.37,WNW,301,2.0,6.0,53,0.00,,---,0.00,VWS V14.01,2013-01-22 09:46:00,
2013-01-22 03:48:00,17.9,4.1,30.37,WNW,301,2.0,6.0,54,0.00,,---,0.00,VWS V14.01,2013-01-22 09:48:00,
2013-01-22 03:49:00,17.9,4.1,30.37,WNW,301,0.0,6.0,54,0.00,,---,0.00,VWS V14.01,2013-01-22 09:49:00,
2013-01-22 03:50:00,17.9,3.7,30.37,WNW,301,0.0,6.0,53,0.00,,---,0.00,VWS V14.01,2013-01-22 09:50:00,
2013-01-22 03:51:00,17.9,4.1,30.37,NNE,22,4.0,6.0,54,0.00,,---,0.00,VWS V14.01,2013-01-22 09:51:00,
2013-01-22 03:54:00,17.9,3.7,30.37,North,352,0.0,6.0,53,0.00,,---,0.00,VWS V14.01,2013-01-22 09:54:00,
2013-01-22 03:55:00,17.9,4.1,30.38,North,352,0.0,6.0,54,0.00,,---,0.00,VWS V14.01,2013-01-22 09:55:00,
2013-01-22 03:56:00,17.9,4.5,30.38,North,352,0.0,6.0,55,0.00,,---,0.00,VWS V14.01,2013-01-22 09:56:00,
2013-01-22 03:59:00,17.8,4.4,30.38,North,352,0.0,0.0,55,0.00,,---,0.00,VWS V14.01,2013-01-22 09:59:00,
2013-01-22 04:00:00,17.8,4.4,30.39,North,352,0.0,0.0,55,0.00,,---,0.00,VWS V14.01,2013-01-22 10:00:00,
2013-01-22 04:02:00,17.7,4.3,30.39,North,352,0.0,0.0,55,0.00,,---,0.00,VWS V14.01,2013-01-22 10:02:00,
2013-01-22 04:04:00,17.7,4.3,30.39,North,352,1.0,2.0,55,0.00,,---,0.00,VWS V14.01,2013-01-22 10:04:00,
2013-01-22 04:05:00,17.7,4.3,30.39,North,352,1.0,2.0,55,0.00,,---,0.00,VWS V14.01,2013-01-22 10:05:00,
2013-01-22 04:07:00,17.8,4.8,30.39,North,352,1.0,2.0,56,0.00,,---,0.00,VWS V14.01,2013-01-22 10:07:00,
2013-01-22 04:09:00,17.8,4.0,30.39,NW,316,1.0,4.0,54,0.00,,---,0.00,VWS V14.01,2013-01-22 10:09:00,
2013-01-22 04:10:00,17.9,4.1,30.39,NW,316,0.0,4.0,54,0.00,,---,0.00,VWS V14.01,2013-01-22 10:10:00,
2013-01-22 04:11:00,17.9,4.1,30.39,NW,316,1.0,4.0,54,0.00,,---,0.00,VWS V14.01,2013-01-22 10:11:00,
2013-01-22 04:12:00,17.9,4.1,30.39,NW,316,3.0,4.0,54,0.00,,---,0.00,VWS V14.01,2013-01-22 10:12:00,
2013-01-22 04:14:00,17.9,4.5,30.39,NW,316,2.0,4.0,55,0.00,,---,0.00,VWS V14.01,2013-01-22 10:14:00,
2013-01-22 04:15:00,17.9,4.5,30.38,NW,316,0.0,4.0,55,0.00,,---,0.00,VWS V14.01,2013-01-22 10:15:00,
2013-01-22 04:16:00,17.9,4.5,30.38,NW,316,2.0,4.0,55,0.00,,---,0.00,VWS V14.01,2013-01-22 10:16:00,
2013-01-22 04:17:00,17.9,4.5,30.38,NW,316,3.0,4.0,55,0.00,,---,0.00,VWS V14.01,2013-01-22 10:17:00,
2013-01-22 04:19:00,17.9,4.5,30.38,NW,316,2.0,4.0,55,0.00,,---,0.00,VWS V14.01,2013-01-22 10:19:00,
2013-01-22 04:21:00,17.9,4.5,30.38,NW,316,2.0,4.0,55,0.00,,---,0.00,VWS V14.01,2013-01-22 10:21:00,
2013-01-22 04:22:00,17.9,4.5,30.38,NW,316,1.0,4.0,55,0.00,,---,0.00,VWS V14.01,2013-01-22 10:22:00,
2013-01-22 04:24:00,18.0,5.0,30.38,NW,316,0.0,4.0,56,0.00,,---,0.00,VWS V14.01,2013-01-22 10:24:00,
2013-01-22 04:26:00,18.0,5.0,30.38,NW,316,0.0,4.0,56,0.00,,---,0.00,VWS V14.01,2013-01-22 10:26:00,
2013-01-22 04:27:00,18.0,5.0,30.38,NW,316,1.0,4.0,56,0.00,,---,0.00,VWS V14.01,2013-01-22 10:27:00,
2013-01-22 04:30:00,18.1,5.1,30.38,NW,316,3.0,3.0,56,0.00,,---,0.00,VWS V14.01,2013-01-22 10:30:00,
2013-01-22 04:31:00,18.1,4.7,30.38,NW,316,2.0,3.0,55,0.00,,---,0.00,VWS V14.01,2013-01-22 10:31:00,
2013-01-22 04:32:00,18.1,4.7,30.38,NW,316,2.0,3.0,55,0.00,,---,0.00,VWS V14.01,2013-01-22 10:32:00,
2013-01-22 04:35:00,18.1,5.1,30.39,NW,316,3.0,3.0,56,0.00,,---,0.00,VWS V14.01,2013-01-22 10:35:00,
2013-01-22 04:36:00,18.2,5.5,30.38,NW,316,1.0,3.0,57,0.00,,---,0.00,VWS V14.01,2013-01-22 10:36:00,
2013-01-22 04:37:00,18.2,5.2,30.38,NW,316,2.0,3.0,56,0.00,,---,0.00,VWS V14.01,2013-01-22 10:37:00,
2013-01-22 04:40:00,18.2,5.2,30.39,NW,316,1.0,4.0,56,0.00,,---,0.00,VWS V14.01,2013-01-22 10:40:00,
2013-01-22 04:41:00,18.2,5.2,30.38,NNW,345,5.0,5.0,56,0.00,,---,0.00,VWS V14.01,2013-01-22 10:41:00,
2013-01-22 04:42:00,18.2,4.8,30.38,NNE,19,5.0,5.0,55,0.00,,---,0.00,VWS V14.01,2013-01-22 10:42:00,
2013-01-22 04:45:00,18.2,4.4,30.38,NW,325,2.0,5.0,54,0.00,,---,0.00,VWS V14.01,2013-01-22 10:45:00,
2013-01-22 04:47:00,18.2,4.4,30.39,NNW,330,3.0,7.0,54,0.00,,---,0.00,VWS V14.01,2013-01-22 10:47:00,
2013-01-22 04:48:00,18.3,4.4,30.39,NNW,335,7.0,7.0,54,0.00,,---,0.00,VWS V14.01,2013-01-22 10:48:00,
2013-01-22 04:50:00,18.2,4.4,30.39,NW,325,3.0,7.0,54,0.00,,---,0.00,VWS V14.01,2013-01-22 10:50:00,
2013-01-22 04:52:00,18.3,4.4,30.39,North,352,4.0,7.0,54,0.00,,---,0.00,VWS V14.01,2013-01-22 10:52:00,
2013-01-22 04:53:00,18.3,4.4,30.38,North,352,4.0,7.0,54,0.00,,---,0.00,VWS V14.01,2013-01-22 10:53:00,
2013-01-22 04:55:00,18.2,4.8,30.38,North,354,4.0,7.0,55,0.00,,---,0.00,VWS V14.01,2013-01-22 10:55:00,
2013-01-22 04:57:00,18.2,4.8,30.38,North,354,6.0,10.0,55,0.00,,---,0.00,VWS V14.01,2013-01-22 10:57:00,
2013-01-22 04:58:00,18.2,4.4,30.38,NNW,339,2.0,4.0,54,0.00,,---,0.00,VWS V14.01,2013-01-22 10:58:00,
2013-01-22 05:00:00,18.3,4.8,30.38,NW,325,3.0,6.0,55,0.00,,---,0.00,VWS V14.01,2013-01-22 11:00:00,
2013-01-22 05:02:00,18.3,5.2,30.39,NNW,335,4.0,7.0,56,0.00,,---,0.00,VWS V14.01,2013-01-22 11:02:00,
2013-01-22 05:03:00,18.3,5.2,30.39,NW,316,5.0,7.0,56,0.00,,---,0.00,VWS V14.01,2013-01-22 11:03:00,
2013-01-22 05:05:00,18.4,5.7,30.39,WNW,298,5.0,7.0,57,0.00,,---,0.00,VWS V14.01,2013-01-22 11:05:00,
2013-01-22 05:07:00,18.4,5.7,30.39,NW,325,4.0,7.0,57,0.00,,---,0.00,VWS V14.01,2013-01-22 11:07:00,
2013-01-22 05:08:00,18.4,5.7,30.39,NW,325,4.0,7.0,57,0.00,,---,0.00,VWS V14.01,2013-01-22 11:08:00,
2013-01-22 05:11:00,18.4,5.3,30.39,NW,325,6.0,7.0,56,0.00,,---,0.00,VWS V14.01,2013-01-22 11:11:00,
2013-01-22 05:12:00,18.3,5.2,30.39,NNW,330,5.0,9.0,56,0.00,,---,0.00,VWS V14.01,2013-01-22 11:12:00,
2013-01-22 05:13:00,18.4,4.9,30.39,NNW,330,2.0,9.0,55,0.00,,---,0.00,VWS V14.01,2013-01-22 11:13:00,
2013-01-22 05:16:00,18.4,5.7,30.39,WNW,290,5.0,9.0,57,0.00,,---,0.00,VWS V14.01,2013-01-22 11:16:00,
2013-01-22 05:17:00,18.4,5.3,30.39,NW,325,4.0,9.0,56,0.00,,---,0.00,VWS V14.01,2013-01-22 11:17:00,
2013-01-22 05:19:00,18.4,5.3,30.39,NW,316,4.0,9.0,56,0.00,,---,0.00,VWS V14.01,2013-01-22 11:19:00,
2013-01-22 05:21:00,18.5,5.4,30.39,NW,309,8.0,9.0,56,0.00,,---,0.00,VWS V14.01,2013-01-22 11:21:00,
2013-01-22 05:22:00,18.5,5.0,30.39,NNW,344,6.0,11.0,55,0.00,,---,0.00,VWS V14.01,2013-01-22 11:22:00,
2013-01-22 05:23:00,18.5,5.0,30.39,WNW,303,8.0,11.0,55,0.00,,---,0.00,VWS V14.01,2013-01-22 11:23:00,
2013-01-22 05:24:00,18.5,4.6,30.39,NNW,330,4.0,11.0,54,0.00,,---,0.00,VWS V14.01,2013-01-22 11:24:00,
2013-01-22 05:26:00,18.5,5.0,30.39,NW,304,8.0,11.0,55,0.00,,---,0.00,VWS V14.01,2013-01-22 11:26:00,
2013-01-22 05:28:00,18.5,4.6,30.39,NW,320,7.0,11.0,54,0.00,,---,0.00,VWS V14.01,2013-01-22 11:28:00,
2013-01-22 05:29:00,18.5,5.0,30.39,NW,318,11.0,12.0,55,0.00,,---,0.00,VWS V14.01,2013-01-22 11:29:00,
2013-01-22 05:30:00,18.5,4.6,30.39,WNW,291,6.0,11.0,54,0.00,,---,0.00,VWS V14.01,2013-01-22 11:30:00,
2013-01-22 05:32:00,18.5,4.6,30.39,NNW,343,5.0,12.0,54,0.00,,---,0.00,VWS V14.01,2013-01-22 11:32:00,
2013-01-22 05:33:00,18.5,4.6,30.39,NNW,343,4.0,12.0,54,0.00,,---,0.00,VWS V14.01,2013-01-22 11:33:00,
2013-01-22 05:34:00,18.6,4.7,30.39,NW,325,6.0,12.0,54,0.00,,---,0.00,VWS V14.01,2013-01-22 11:34:00,
2013-01-22 05:37:00,18.6,4.7,30.39,NNW,339,4.0,12.0,54,0.00,,---,0.00,VWS V14.01,2013-01-22 11:37:00,
2013-01-22 05:38:00,18.6,4.7,30.40,NW,320,4.0,12.0,54,0.00,,---,0.00,VWS V14.01,2013-01-22 11:38:00,
2013-01-22 05:39:00,18.6,4.7,30.40,NW,325,6.0,12.0,54,0.00,,---,0.00,VWS V14.01,2013-01-22 11:39:00,
2013-01-22 05:42:00,18.7,4.4,30.40,NW,325,7.0,12.0,53,0.00,,---,0.00,VWS V14.01,2013-01-22 11:42:00,
2013-01-22 05:43:00,18.7,4.4,30.40,North,350,8.0,12.0,53,0.00,,---,0.00,VWS V14.01,2013-01-22 11:43:00,
2013-01-22 05:44:00,18.7,4.4,30.40,NNW,343,4.0,12.0,53,0.00,,---,0.00,VWS V14.01,2013-01-22 11:44:00,
2013-01-22 05:47:00,18.7,4.4,30.40,NW,314,7.0,12.0,53,0.00,,---,0.00,VWS V14.01,2013-01-22 11:47:00,
2013-01-22 05:48:00,18.6,4.3,30.40,NNW,330,8.0,12.0,53,0.00,,---,0.00,VWS V14.01,2013-01-22 11:48:00,
2013-01-22 05:49:00,18.7,4.4,30.40,NNW,330,6.0,12.0,53,0.00,,---,0.00,VWS V14.01,2013-01-22 11:49:00,
2013-01-22 05:52:00,18.7,4.0,30.40,NNW,335,7.0,15.0,52,0.00,,---,0.00,VWS V14.01,2013-01-22 11:52:00,
2013-01-22 05:53:00,18.7,4.0,30.40,NW,325,4.0,15.0,52,0.00,,---,0.00,VWS V14.01,2013-01-22 11:53:00,
2013-01-22 05:54:00,18.7,4.4,30.40,North,360,7.0,15.0,53,0.00,,---,0.00,VWS V14.01,2013-01-22 11:54:00,
2013-01-22 05:57:00,18.7,4.4,30.40,NNW,343,8.0,15.0,53,0.00,,---,0.00,VWS V14.01,2013-01-22 11:57:00,
2013-01-22 05:58:00,18.7,4.4,30.40,NW,315,7.0,8.0,53,0.00,,---,0.00,VWS V14.01,2013-01-22 11:58:00,
2013-01-22 05:59:00,18.7,4.4,30.40,NNW,339,7.0,12.0,53,0.00,,---,0.00,VWS V14.01,2013-01-22 11:59:00,
2013-01-22 06:00:00,18.7,4.4,30.40,North,353,6.0,12.0,53,0.00,,---,0.00,VWS V14.01,2013-01-22 12:00:00,
2013-01-22 06:02:00,18.8,4.5,30.41,NNW,330,7.0,12.0,53,0.00,,---,0.00,VWS V14.01,2013-01-22 12:02:00,
2013-01-22 06:03:00,18.7,4.8,30.40,NW,315,8.0,12.0,54,0.00,,---,0.00,VWS V14.01,2013-01-22 12:03:00,
2013-01-22 06:04:00,18.8,4.9,30.40,NW,325,4.0,12.0,54,0.00,,---,0.00,VWS V14.01,2013-01-22 12:04:00,
2013-01-22 06:05:00,18.7,4.8,30.40,NW,325,5.0,12.0,54,0.00,,---,0.00,VWS V14.01,2013-01-22 12:05:00,
2013-01-22 06:07:00,18.8,4.9,30.40,NW,317,10.0,13.0,54,0.00,,---,0.00,VWS V14.01,2013-01-22 12:07:00,
2013-01-22 06:08:00,18.8,4.9,30.40,NW,319,6.0,13.0,54,0.00,,---,0.00,VWS V14.01,2013-01-22 12:08:00,
2013-01-22 06:09:00,18.8,4.9,30.40,NNW,341,7.0,13.0,54,0.00,,---,0.00,VWS V14.01,2013-01-22 12:09:00,
2013-01-22 06:10:00,18.7,4.8,30.40,NW,325,7.0,13.0,54,0.00,,---,0.00,VWS V14.01,2013-01-22 12:10:00,
2013-01-22 06:13:00,18.8,4.9,30.40,NW,319,6.0,13.0,54,0.00,,---,0.00,VWS V14.01,2013-01-22 12:13:00,
2013-01-22 06:15:00,18.8,4.9,30.40,NNW,335,5.0,13.0,54,0.00,,---,0.00,VWS V14.01,2013-01-22 12:15:00,
2013-01-22 06:18:00,18.8,4.9,30.40,North,4,5.0,13.0,54,0.00,,---,0.00,VWS V14.01,2013-01-22 12:18:00,
2013-01-22 06:19:00,18.8,4.9,30.40,NW,312,5.0,13.0,54,0.00,,---,0.00,VWS V14.01,2013-01-22 12:19:00,
2013-01-22 06:20:00,18.8,5.3,30.39,North,349,4.0,13.0,55,0.00,,---,0.00,VWS V14.01,2013-01-22 12:20:00,
2013-01-22 06:23:00,18.8,4.9,30.40,NNW,347,6.0,13.0,54,0.00,,---,0.00,VWS V14.01,2013-01-22 12:23:00,
2013-01-22 06:24:00,18.8,4.5,30.40,NW,321,9.0,13.0,53,0.00,,---,0.00,VWS V14.01,2013-01-22 12:24:00,
2013-01-22 06:25:00,18.8,4.5,30.40,NNW,330,5.0,13.0,53,0.00,,---,0.00,VWS V14.01,2013-01-22 12:25:00,
2013-01-22 06:28:00,18.8,4.1,30.39,NW,315,5.0,8.0,52,0.00,,---,0.00,VWS V14.01,2013-01-22 12:28:00,
2013-01-22 06:29:00,18.8,4.1,30.39,NW,325,6.0,9.0,52,0.00,,---,0.00,VWS V14.01,2013-01-22 12:29:00,
2013-01-22 06:30:00,18.8,4.1,30.39,NNW,339,6.0,13.0,52,0.00,,---,0.00,VWS V14.01,2013-01-22 12:30:00,
2013-01-22 06:31:00,18.7,4.0,30.39,NNW,330,6.0,11.0,52,0.00,,---,0.00,VWS V14.01,2013-01-22 12:31:00,
2013-01-22 06:33:00,18.7,3.6,30.39,NNW,335,5.0,11.0,51,0.00,,---,0.00,VWS V14.01,2013-01-22 12:33:00,
2013-01-22 06:34:00,18.8,4.1,30.39,NNW,345,5.0,11.0,52,0.00,,---,0.00,VWS V14.01,2013-01-22 12:34:00,
2013-01-22 06:36:00,18.7,4.0,30.39,NNW,330,6.0,11.0,52,0.00,,---,0.00,VWS V14.01,2013-01-22 12:36:00,
2013-01-22 06:38:00,18.8,4.1,30.39,NNW,330,6.0,11.0,52,0.00,,---,0.00,VWS V14.01,2013-01-22 12:38:00,
2013-01-22 06:39:00,18.8,4.1,30.39,NW,320,10.0,11.0,52,0.00,,---,0.00,VWS V14.01,2013-01-22 12:39:00,
2013-01-22 06:41:00,18.7,3.2,30.40,NNW,339,6.0,11.0,50,0.00,,---,0.00,VWS V14.01,2013-01-22 12:41:00,
2013-01-22 06:42:00,18.8,3.2,30.40,NW,321,3.0,11.0,50,0.00,,---,0.00,VWS V14.01,2013-01-22 12:42:00,
2013-01-22 06:43:00,18.8,3.2,30.40,NNE,16,5.0,11.0,50,0.00,,---,0.00,VWS V14.01,2013-01-22 12:43:00,
2013-01-22 06:45:00,18.7,2.7,30.40,NW,318,5.0,11.0,49,0.00,,---,0.00,VWS V14.01,2013-01-22 12:45:00,
2013-01-22 06:46:00,18.7,2.7,30.40,NNW,339,8.0,11.0,49,0.00,,---,0.00,VWS V14.01,2013-01-22 12:46:00,
2013-01-22 06:47:00,18.7,2.7,30.40,NW,321,6.0,11.0,49,0.00,,---,0.00,VWS V14.01,2013-01-22 12:47:00,
2013-01-22 06:48:00,18.7,2.3,30.40,North,354,9.0,11.0,48,0.00,,---,0.00,VWS V14.01,2013-01-22 12:48:00,
2013-01-22 06:50:00,18.7,2.3,30.40,NNW,343,6.0,11.0,48,0.00,,---,0.00,VWS V14.01,2013-01-22 12:50:00,
2013-01-22 06:51:00,18.7,2.7,30.40,NNW,343,4.0,11.0,49,0.00,,---,0.00,VWS V14.01,2013-01-22 12:51:00,
2013-01-22 06:52:00,18.7,3.2,30.40,WNW,295,9.0,11.0,50,0.00,,---,0.00,VWS V14.01,2013-01-22 12:52:00,
2013-01-22 06:54:00,18.7,3.2,30.40,NNW,335,5.0,11.0,50,0.00,,---,0.00,VWS V14.01,2013-01-22 12:54:00,
2013-01-22 06:55:00,18.7,2.7,30.40,NW,312,6.0,11.0,49,0.00,,---,0.00,VWS V14.01,2013-01-22 12:55:00,
2013-01-22 06:56:00,18.7,2.7,30.40,NW,306,7.0,11.0,49,0.00,,---,0.00,VWS V14.01,2013-01-22 12:56:00,
2013-01-22 06:58:00,18.7,2.7,30.40,NW,325,9.0,11.0,49,0.00,,---,0.00,VWS V14.01,2013-01-22 12:58:00,
2013-01-22 06:59:00,18.7,2.7,30.41,NNW,330,5.0,8.0,49,0.00,,---,0.00,VWS V14.01,2013-01-22 12:59:00,
2013-01-22 07:00:00,18.7,2.7,30.40,NW,321,7.0,11.0,49,0.00,,---,0.00,VWS V14.01,2013-01-22 13:00:00,
2013-01-22 07:01:00,18.7,3.2,30.41,NNW,330,4.0,9.0,50,0.00,,---,0.00,VWS V14.01,2013-01-22 13:01:00,
2013-01-22 07:02:00,18.7,3.2,30.41,NNW,339,3.0,9.0,50,0.00,,---,0.00,VWS V14.01,2013-01-22 13:02:00,
2013-01-22 07:03:00,18.7,3.2,30.41,NW,325,7.0,9.0,50,0.00,,---,0.00,VWS V14.01,2013-01-22 13:03:00,
2013-01-22 07:04:00,18.7,3.2,30.41,NW,325,3.0,9.0,50,0.00,,---,0.00,VWS V14.01,2013-01-22 13:04:00,
2013-01-22 07:06:00,18.8,3.7,30.41,NNW,341,4.0,9.0,51,0.00,,---,0.00,VWS V14.01,2013-01-22 13:06:00,
2013-01-22 07:07:00,18.8,3.7,30.41,NNW,347,4.0,9.0,51,0.00,,---,0.00,VWS V14.01,2013-01-22 13:07:00,
2013-01-22 07:08:00,18.8,3.7,30.41,NW,325,3.0,9.0,51,0.00,,---,0.00,VWS V14.01,2013-01-22 13:08:00,
2013-01-22 07:09:00,18.8,3.2,30.41,NW,321,4.0,9.0,50,0.00,,---,0.00,VWS V14.01,2013-01-22 13:09:00,
2013-01-22 07:11:00,18.8,3.7,30.41,WNW,293,4.0,9.0,51,0.00,,---,0.00,VWS V14.01,2013-01-22 13:11:00,
2013-01-22 07:12:00,18.8,3.7,30.42,NNW,335,7.0,9.0,51,0.00,,---,0.00,VWS V14.01,2013-01-22 13:12:00,
2013-01-22 07:13:00,18.8,3.7,30.42,West,281,4.0,9.0,51,0.00,,---,0.00,VWS V14.01,2013-01-22 13:13:00,
2013-01-22 07:14:00,18.8,2.8,30.42,WNW,298,4.0,9.0,49,0.00,,---,0.00,VWS V14.01,2013-01-22 13:14:00,
2013-01-22 07:16:00,18.8,2.8,30.42,NW,325,2.0,9.0,49,0.00,,---,0.00,VWS V14.01,2013-01-22 13:16:00,
2013-01-22 07:17:00,18.8,2.8,30.42,NW,325,0.0,9.0,49,0.00,,---,0.00,VWS V14.01,2013-01-22 13:17:00,
2013-01-22 07:18:00,18.8,2.8,30.42,NW,318,4.0,9.0,49,0.00,,---,0.00,VWS V14.01,2013-01-22 13:18:00,
2013-01-22 07:19:00,18.8,2.8,30.42,NW,316,5.0,9.0,49,0.00,,---,0.00,VWS V14.01,2013-01-22 13:19:00,
2013-01-22 07:22:00,18.8,2.8,30.42,NW,325,3.0,9.0,49,0.00,,---,0.00,VWS V14.01,2013-01-22 13:22:00,
2013-01-22 07:23:00,18.8,2.8,30.42,NW,325,4.0,9.0,49,0.00,,---,0.00,VWS V14.01,2013-01-22 13:23:00,
2013-01-22 07:24:00,18.8,3.2,30.42,NW,325,3.0,9.0,50,0.00,,---,0.00,VWS V14.01,2013-01-22 13:24:00,
2013-01-22 07:27:00,18.8,3.2,30.42,NW,308,2.0,9.0,50,0.00,,---,0.00,VWS V14.01,2013-01-22 13:27:00,
2013-01-22 07:28:00,18.8,3.2,30.42,NW,308,2.0,9.0,50,0.00,,---,0.00,VWS V14.01,2013-01-22 13:28:00,
2013-01-22 07:30:00,18.9,3.8,30.42,NNW,339,2.0,3.0,51,0.00,,---,0.00,VWS V14.01,2013-01-22 13:30:00,
2013-01-22 07:32:00,18.8,3.2,30.42,North,360,2.0,5.0,50,0.00,,---,0.00,VWS V14.01,2013-01-22 13:32:00,
2013-01-22 07:33:00,18.9,3.3,30.42,North,354,1.0,5.0,50,0.00,,---,0.00,VWS V14.01,2013-01-22 13:33:00,
2013-01-22 07:35:00,18.9,2.9,30.42,NNW,335,5.0,8.0,49,0.00,,---,0.00,VWS V14.01,2013-01-22 13:35:00,
2013-01-22 07:37:00,18.9,2.9,30.42,NW,319,4.0,8.0,49,0.00,,---,0.00,VWS V14.01,2013-01-22 13:37:00,
2013-01-22 07:38:00,18.9,2.9,30.42,NW,309,4.0,8.0,49,0.00,,---,0.00,VWS V14.01,2013-01-22 13:38:00,
2013-01-22 07:39:00,18.9,2.9,30.42,NW,306,3.0,8.0,49,0.00,,---,0.00,VWS V14.01,2013-01-22 13:39:00,
2013-01-22 07:40:00,18.8,2.8,30.43,NW,317,3.0,8.0,49,0.00,,---,0.00,VWS V14.01,2013-01-22 13:40:00,
2013-01-22 07:42:00,18.8,3.2,30.43,NW,321,3.0,8.0,50,0.00,,---,0.00,VWS V14.01,2013-01-22 13:42:00,
2013-01-22 07:43:00,18.8,3.2,30.43,NW,321,2.0,8.0,50,0.00,,---,0.00,VWS V14.01,2013-01-22 13:43:00,
2013-01-22 07:44:00,18.8,3.2,30.43,West,281,4.0,8.0,50,0.00,,---,0.00,VWS V14.01,2013-01-22 13:44:00,
2013-01-22 07:45:00,18.8,3.2,30.43,NW,318,4.0,8.0,50,0.00,,---,0.00,VWS V14.01,2013-01-22 13:45:00,
2013-01-22 07:47:00,18.9,3.3,30.43,NNE,14,5.0,8.0,50,0.00,,---,0.00,VWS V14.01,2013-01-22 13:47:00,
2013-01-22 07:48:00,18.9,3.3,30.43,NW,325,3.0,8.0,50,0.00,,---,0.00,VWS V14.01,2013-01-22 13:48:00,
2013-01-22 07:49:00,18.9,3.3,30.43,NW,325,3.0,8.0,50,0.00,,---,0.00,VWS V14.01,2013-01-22 13:49:00,
2013-01-22 07:50:00,18.9,3.8,30.43,North,2,5.0,8.0,51,0.00,,---,0.00,VWS V14.01,2013-01-22 13:50:00,
2013-01-22 07:53:00,19.0,3.4,30.43,NW,318,3.0,8.0,50,0.00,,---,0.00,VWS V14.01,2013-01-22 13:53:00,
2013-01-22 07:54:00,19.0,4.3,30.43,NNW,335,5.0,8.0,52,0.00,,---,0.00,VWS V14.01,2013-01-22 13:54:00,
2013-01-22 07:56:00,19.0,3.9,30.43,North,2,5.0,8.0,51,0.00,,---,0.00,VWS V14.01,2013-01-22 13:56:00,
2013-01-22 07:58:00,19.0,3.4,30.43,NW,316,5.0,8.0,50,0.00,,---,0.00,VWS V14.01,2013-01-22 13:58:00,
2013-01-22 07:59:00,19.0,3.4,30.43,WNW,303,4.0,6.0,50,0.00,,---,0.00,VWS V14.01,2013-01-22 13:59:00,
2013-01-22 08:00:00,19.0,3.4,30.43,WNW,297,4.0,6.0,50,0.00,,---,0.00,VWS V14.01,2013-01-22 14:00:00,
2013-01-22 08:01:00,19.0,3.4,30.43,NW,314,4.0,6.0,50,0.00,,---,0.00,VWS V14.01,2013-01-22 14:01:00,
2013-01-22 08:03:00,19.0,3.4,30.43,NW,325,4.0,7.0,50,0.00,,---,0.00,VWS V14.01,2013-01-22 14:03:00,
2013-01-22 08:04:00,19.1,3.5,30.43,NW,308,4.0,7.0,50,0.00,,---,0.00,VWS V14.01,2013-01-22 14:04:00,
2013-01-22 08:05:00,19.0,3.9,30.43,NW,304,3.0,7.0,51,0.00,,---,0.00,VWS V14.01,2013-01-22 14:05:00,
2013-01-22 08:06:00,19.1,4.0,30.43,NW,319,3.0,7.0,51,0.00,,---,0.00,VWS V14.01,2013-01-22 14:06:00,
2013-01-22 08:08:00,19.1,4.0,30.44,WNW,291,4.0,7.0,51,0.00,,---,0.00,VWS V14.01,2013-01-22 14:08:00,
2013-01-22 08:09:00,19.2,4.1,30.44,NW,325,5.0,7.0,51,0.00,,---,0.00,VWS V14.01,2013-01-22 14:09:00,
2013-01-22 08:10:00,19.2,4.1,30.44,NW,325,3.0,7.0,51,0.00,,---,0.00,VWS V14.01,2013-01-22 14:10:00,
2013-01-22 08:11:00,19.2,4.1,30.44,NW,325,3.0,7.0,51,0.00,,---,0.00,VWS V14.01,2013-01-22 14:11:00,
2013-01-22 08:13:00,19.2,4.1,30.44,NNW,335,1.0,7.0,51,0.00,,---,0.00,VWS V14.01,2013-01-22 14:13:00,
2013-01-22 08:14:00,19.4,4.7,30.44,NNW,335,4.0,7.0,52,0.00,,---,0.00,VWS V14.01,2013-01-22 14:14:00,
2013-01-22 08:15:00,19.4,4.7,30.44,NW,315,5.0,7.0,52,0.00,,---,0.00,VWS V14.01,2013-01-22 14:15:00,
2013-01-22 08:17:00,19.5,4.8,30.43,NW,306,6.0,8.0,52,0.00,,---,0.00,VWS V14.01,2013-01-22 14:17:00,
2013-01-22 08:18:00,19.4,3.8,30.43,North,353,6.0,10.0,50,0.00,,---,0.00,VWS V14.01,2013-01-22 14:18:00,
2013-01-22 08:19:00,19.4,3.8,30.43,NNW,335,3.0,10.0,50,0.00,,---,0.00,VWS V14.01,2013-01-22 14:19:00,
2013-01-22 08:20:00,19.4,3.8,30.43,NW,325,4.0,10.0,50,0.00,,---,0.00,VWS V14.01,2013-01-22 14:20:00,
2013-01-22 08:22:00,19.4,3.8,30.44,NW,325,6.0,10.0,50,0.00,,---,0.00,VWS V14.01,2013-01-22 14:22:00,
2013-01-22 08:23:00,19.4,3.4,30.44,NW,318,4.0,10.0,49,0.00,,---,0.00,VWS V14.01,2013-01-22 14:23:00,
2013-01-22 08:24:00,19.4,3.8,30.44,NNW,347,3.0,10.0,50,0.00,,---,0.00,VWS V14.01,2013-01-22 14:24:00,
2013-01-22 08:25:00,19.4,3.8,30.44,NNW,330,4.0,10.0,50,0.00,,---,0.00,VWS V14.01,2013-01-22 14:25:00,
2013-01-22 08:27:00,19.4,3.8,30.44,North,356,5.0,10.0,50,0.00,,---,0.00,VWS V14.01,2013-01-22 14:27:00,
2013-01-22 08:28:00,19.4,3.4,30.44,North,357,5.0,7.0,49,0.00,,---,0.00,VWS V14.01,2013-01-22 14:28:00,
2013-01-22 08:30:00,19.5,3.5,30.44,NNW,347,3.0,7.0,49,0.00,,---,0.00,VWS V14.01,2013-01-22 14:30:00,
2013-01-22 08:31:00,19.5,3.9,30.44,NNW,341,6.0,7.0,50,0.00,,---,0.00,VWS V14.01,2013-01-22 14:31:00,
2013-01-22 08:33:00,19.5,3.9,30.44,North,356,9.0,9.0,50,0.00,,---,0.00,VWS V14.01,2013-01-22 14:33:00,
2013-01-22 08:35:00,19.6,3.1,30.43,North,358,8.0,9.0,48,0.00,,---,0.00,VWS V14.01,2013-01-22 14:35:00,
2013-01-22 08:36:00,19.5,3.0,30.43,NNW,340,9.0,11.0,48,0.00,,---,0.00,VWS V14.01,2013-01-22 14:36:00,
2013-01-22 08:38:00,19.5,2.6,30.44,NW,325,6.0,11.0,47,0.00,,---,0.00,VWS V14.01,2013-01-22 14:38:00,
2013-01-22 08:40:00,19.5,2.6,30.44,North,11,7.0,11.0,47,0.00,,---,0.00,VWS V14.01,2013-01-22 14:40:00,
2013-01-22 08:41:00,19.5,3.0,30.44,North,349,4.0,11.0,48,0.00,,---,0.00,VWS V14.01,2013-01-22 14:41:00,
2013-01-22 08:43:00,19.5,3.0,30.44,NNE,22,5.0,11.0,48,0.00,,---,0.00,VWS V14.01,2013-01-22 14:43:00,
2013-01-22 08:44:00,19.5,3.5,30.44,North,9,6.0,11.0,49,0.00,,---,0.00,VWS V14.01,2013-01-22 14:44:00,
2013-01-22 08:45:00,19.5,3.5,30.44,NNE,18,6.0,11.0,49,0.00,,---,0.00,VWS V14.01,2013-01-22 14:45:00,
2013-01-22 08:47:00,19.6,3.5,30.43,NNW,345,3.0,11.0,49,0.00,,---,0.00,VWS V14.01,2013-01-22 14:47:00,
2013-01-22 08:48:00,19.7,3.7,30.43,NNW,341,4.0,11.0,49,0.00,,---,0.00,VWS V14.01,2013-01-22 14:48:00,
2013-01-22 08:49:00,19.7,3.2,30.43,NW,325,5.0,11.0,48,0.00,,---,0.00,VWS V14.01,2013-01-22 14:49:00,
2013-01-22 08:50:00,19.6,2.7,30.43,NNW,330,8.0,11.0,47,0.00,,---,0.00,VWS V14.01,2013-01-22 14:50:00,
2013-01-22 08:52:00,19.6,2.2,30.43,NW,325,3.0,11.0,46,0.00,,---,0.00,VWS V14.01,2013-01-22 14:52:00,
2013-01-22 08:53:00,19.6,2.2,30.43,WNW,291,5.0,11.0,46,0.00,,---,0.00,VWS V14.01,2013-01-22 14:53:00,
2013-01-22 08:54:00,19.6,2.7,30.43,NW,318,3.0,11.0,47,0.00,,---,0.00,VWS V14.01,2013-01-22 14:54:00,
2013-01-22 08:56:00,19.7,2.8,30.43,North,4,3.0,11.0,47,0.00,,---,0.00,VWS V14.01,2013-01-22 14:56:00,
2013-01-22 08:57:00,19.7,2.8,30.43,NNW,330,6.0,11.0,47,0.00,,---,0.00,VWS V14.01,2013-01-22 14:57:00,
2013-01-22 08:58:00,19.7,2.8,30.43,North,8,3.0,4.0,47,0.00,,---,0.00,VWS V14.01,2013-01-22 14:58:00,
2013-01-22 08:59:00,19.7,3.2,30.43,NNW,343,5.0,9.0,48,0.00,,---,0.00,VWS V14.01,2013-01-22 14:59:00,
2013-01-22 09:00:00,19.7,2.8,30.43,North,359,3.0,11.0,47,0.00,,---,0.00,VWS V14.01,2013-01-22 15:00:00,
2013-01-22 09:01:00,19.8,2.8,30.43,North,350,3.0,9.0,47,0.00,,---,0.00,VWS V14.01,2013-01-22 15:01:00,
2013-01-22 09:02:00,19.8,2.8,30.43,NNW,335,3.0,9.0,47,0.00,,---,0.00,VWS V14.01,2013-01-22 15:02:00,
2013-01-22 09:03:00,19.9,3.8,30.43,NW,320,3.0,9.0,49,0.00,,---,0.00,VWS V14.01,2013-01-22 15:03:00,
2013-01-22 09:04:00,20.0,3.9,30.43,NW,321,4.0,9.0,49,0.00,,---,0.00,VWS V14.01,2013-01-22 15:04:00,
2013-01-22 09:06:00,20.1,3.6,30.43,NNW,335,3.0,9.0,48,0.00,,---,0.00,VWS V14.01,2013-01-22 15:06:00,
2013-01-22 09:08:00,20.0,3.5,30.44,North,9,3.0,9.0,48,0.00,,---,0.00,VWS V14.01,2013-01-22 15:08:00,
2013-01-22 09:10:00,20.2,4.1,30.44,NW,316,2.0,9.0,49,0.00,,---,0.00,VWS V14.01,2013-01-22 15:10:00,
2013-01-22 09:12:00,20.3,4.2,30.44,NE,42,7.0,9.0,49,0.00,,---,0.00,VWS V14.01,2013-01-22 15:12:00,
2013-01-22 09:13:00,20.1,3.6,30.44,North,354,4.0,9.0,48,0.00,,---,0.00,VWS V14.01,2013-01-22 15:13:00,
2013-01-22 09:15:00,20.0,3.0,30.44,North,1,5.0,9.0,47,0.00,,---,0.00,VWS V14.01,2013-01-22 15:15:00,
2013-01-22 09:17:00,20.0,3.5,30.44,NW,321,4.0,9.0,48,0.00,,---,0.00,VWS V14.01,2013-01-22 15:17:00,
2013-01-22 09:18:00,20.0,3.5,30.44,North,360,4.0,9.0,48,0.00,,---,0.00,VWS V14.01,2013-01-22 15:18:00,
2013-01-22 09:19:00,20.0,3.0,30.44,North,352,8.0,9.0,47,0.00,,---,0.00,VWS V14.01,2013-01-22 15:19:00,
2013-01-22 09:20:00,20.1,3.1,30.45,NNW,330,6.0,9.0,47,0.00,,---,0.00,VWS V14.01,2013-01-22 15:20:00,
2013-01-22 09:22:00,20.0,3.0,30.45,NNW,344,5.0,9.0,47,0.00,,---,0.00,VWS V14.01,2013-01-22 15:22:00,
2013-01-22 09:23:00,20.0,3.0,30.45,NNW,330,6.0,9.0,47,0.00,,---,0.00,VWS V14.01,2013-01-22 15:23:00,
2013-01-22 09:24:00,20.0,3.5,30.45,NNW,335,5.0,9.0,48,0.00,,---,0.00,VWS V14.01,2013-01-22 15:24:00,
2013-01-22 09:25:00,20.0,3.5,30.45,North,2,3.0,9.0,48,0.00,,---,0.00,VWS V14.01,2013-01-22 15:25:00,
2013-01-22 09:27:00,20.1,4.0,30.45,North,355,7.0,9.0,49,0.00,,---,0.00,VWS V14.01,2013-01-22 15:27:00,
2013-01-22 09:28:00,20.1,3.6,30.45,NNW,335,4.0,6.0,48,0.00,,---,0.00,VWS V14.01,2013-01-22 15:28:00,
2013-01-22 09:29:00,20.1,3.6,30.45,North,4,4.0,6.0,48,0.00,,---,0.00,VWS V14.01,2013-01-22 15:29:00,
2013-01-22 09:30:00,20.1,3.6,30.45,NW,325,6.0,9.0,48,0.00,,---,0.00,VWS V14.01,2013-01-22 15:30:00,
2013-01-22 09:31:00,20.0,3.5,30.45,NNE,19,4.0,6.0,48,0.00,,---,0.00,VWS V14.01,2013-01-22 15:31:00,
2013-01-22 09:32:00,20.1,3.6,30.45,NNE,25,4.0,8.0,48,0.00,,---,0.00,VWS V14.01,2013-01-22 15:32:00,
2013-01-22 09:33:00,20.0,3.5,30.45,NE,39,5.0,8.0,48,0.00,,---,0.00,VWS V14.01,2013-01-22 15:33:00,
2013-01-22 09:34:00,20.0,3.5,30.45,North,354,6.0,8.0,48,0.00,,---,0.00,VWS V14.01,2013-01-22 15:34:00,
2013-01-22 09:36:00,20.0,3.5,30.45,North,4,4.0,8.0,48,0.00,,---,0.00,VWS V14.01,2013-01-22 15:36:00,
2013-01-22 09:37:00,20.2,4.1,30.45,NNW,335,3.0,8.0,49,0.00,,---,0.00,VWS V14.01,2013-01-22 15:37:00,
2013-01-22 09:39:00,20.2,4.6,30.45,North,6,2.0,8.0,50,0.00,,---,0.00,VWS V14.01,2013-01-22 15:39:00,
2013-01-22 09:41:00,20.6,5.3,30.45,NNW,347,5.0,8.0,51,0.00,,---,0.00,VWS V14.01,2013-01-22 15:41:00,
2013-01-22 09:42:00,20.5,3.9,30.45,NW,325,4.0,8.0,48,0.00,,---,0.00,VWS V14.01,2013-01-22 15:42:00,
2013-01-22 09:44:00,20.4,3.4,30.45,North,357,5.0,8.0,47,0.00,,---,0.00,VWS V14.01,2013-01-22 15:44:00,
2013-01-22 09:46:00,20.4,4.3,30.45,NNW,335,2.0,8.0,49,0.00,,---,0.00,VWS V14.01,2013-01-22 15:46:00,
2013-01-22 09:48:00,20.4,3.8,30.46,NNW,335,3.0,8.0,48,0.00,,---,0.00,VWS V14.01,2013-01-22 15:48:00,
2013-01-22 09:49:00,20.6,4.5,30.45,North,358,4.0,8.0,49,0.00,,---,0.00,VWS V14.01,2013-01-22 15:49:00,
2013-01-22 09:52:00,20.7,4.6,30.45,North,358,8.0,9.0,49,0.00,,---,0.00,VWS V14.01,2013-01-22 15:52:00,
2013-01-22 09:53:00,20.6,4.5,30.46,NW,325,4.0,9.0,49,0.00,,---,0.00,VWS V14.01,2013-01-22 15:53:00,
2013-01-22 09:54:00,20.5,3.9,30.46,NNW,335,5.0,9.0,48,0.00,,---,0.00,VWS V14.01,2013-01-22 15:54:00,
2013-01-22 09:55:00,20.4,3.8,30.46,NNW,339,4.0,9.0,48,0.00,,---,0.00,VWS V14.01,2013-01-22 15:55:00,
2013-01-22 09:57:00,20.5,4.4,30.46,NNW,343,5.0,9.0,49,0.00,,---,0.00,VWS V14.01,2013-01-22 15:57:00,
2013-01-22 09:58:00,20.5,4.4,30.46,NNE,24,3.0,4.0,49,0.00,,---,0.00,VWS V14.01,2013-01-22 15:58:00,
2013-01-22 10:00:00,20.7,4.6,30.46,NE,35,3.0,6.0,49,0.00,,---,0.00,VWS V14.01,2013-01-22 16:00:00,
2013-01-22 10:02:00,20.4,4.3,30.46,NNE,25,4.0,8.0,49,0.00,,---,0.00,VWS V14.01,2013-01-22 16:02:00,
2013-01-22 10:03:00,20.3,4.2,30.45,North,360,3.0,8.0,49,0.00,,---,0.00,VWS V14.01,2013-01-22 16:03:00,
2013-01-22 10:05:00,20.4,4.7,30.46,NE,50,6.0,8.0,50,0.00,,---,0.00,VWS V14.01,2013-01-22 16:05:00,
2013-01-22 10:08:00,20.2,4.1,30.46,NE,47,3.0,8.0,49,0.00,,---,0.00,VWS V14.01,2013-01-22 16:08:00,
2013-01-22 10:10:00,20.4,5.2,30.46,NNE,32,1.0,8.0,51,0.00,,---,0.00,VWS V14.01,2013-01-22 16:10:00,
2013-01-22 10:13:00,21.2,5.9,30.46,North,352,2.0,8.0,51,0.00,,---,0.00,VWS V14.01,2013-01-22 16:13:00,
2013-01-22 10:14:00,21.2,5.5,30.46,NNW,342,4.0,8.0,50,0.00,,---,0.00,VWS V14.01,2013-01-22 16:14:00,
2013-01-22 10:15:00,21.1,4.9,30.46,NW,314,4.0,8.0,49,0.00,,---,0.00,VWS V14.01,2013-01-22 16:15:00,
2013-01-22 10:18:00,21.1,4.9,30.46,North,358,5.0,8.0,49,0.00,,---,0.00,VWS V14.01,2013-01-22 16:18:00,
2013-01-22 10:19:00,21.0,4.4,30.46,North,1,5.0,8.0,48,0.00,,---,0.00,VWS V14.01,2013-01-22 16:19:00,
2013-01-22 10:20:00,20.9,4.3,30.46,North,356,2.0,8.0,48,0.00,,---,0.00,VWS V14.01,2013-01-22 16:20:00,
2013-01-22 10:23:00,20.9,4.3,30.45,North,355,2.0,8.0,48,0.00,,---,0.00,VWS V14.01,2013-01-22 16:23:00,
2013-01-22 10:24:00,20.7,4.1,30.46,NNE,15,4.0,8.0,48,0.00,,---,0.00,VWS V14.01,2013-01-22 16:24:00,
2013-01-22 10:25:00,20.7,4.1,30.45,NNE,23,3.0,8.0,48,0.00,,---,0.00,VWS V14.01,2013-01-22 16:25:00,
2013-01-22 10:28:00,20.9,4.8,30.45,NNE,13,3.0,3.0,49,0.00,,---,0.00,VWS V14.01,2013-01-22 16:28:00,
2013-01-22 10:29:00,20.9,4.8,30.45,North,2,6.0,7.0,49,0.00,,---,0.00,VWS V14.01,2013-01-22 16:29:00,
2013-01-22 10:30:00,21.0,5.3,30.45,NNW,341,3.0,7.0,50,0.00,,---,0.00,VWS V14.01,2013-01-22 16:30:00,
2013-01-22 10:33:00,21.3,5.1,30.45,NNW,335,1.0,7.0,49,0.00,,---,0.00,VWS V14.01,2013-01-22 16:33:00,
2013-01-22 10:34:00,21.5,5.8,30.45,NNE,33,7.0,8.0,50,0.00,,---,0.00,VWS V14.01,2013-01-22 16:34:00,
2013-01-22 10:36:00,21.3,4.7,30.45,NNE,26,6.0,8.0,48,0.00,,---,0.00,VWS V14.01,2013-01-22 16:36:00,
2013-01-22 10:37:00,21.0,4.4,30.45,NNE,28,2.0,8.0,48,0.00,,---,0.00,VWS V14.01,2013-01-22 16:37:00,
2013-01-22 10:38:00,20.9,4.3,30.45,North,354,2.0,8.0,48,0.00,,---,0.00,VWS V14.01,2013-01-22 16:38:00,
2013-01-22 10:40:00,21.1,4.9,30.45,NE,45,4.0,8.0,49,0.00,,---,0.00,VWS V14.01,2013-01-22 16:40:00,
2013-01-22 10:41:00,21.0,4.8,30.45,ENE,66,5.0,8.0,49,0.00,,---,0.00,VWS V14.01,2013-01-22 16:41:00,
2013-01-22 10:42:00,21.0,4.4,30.45,ENE,62,6.0,8.0,48,0.00,,---,0.00,VWS V14.01,2013-01-22 16:42:00,
2013-01-22 10:44:00,21.0,4.4,30.45,ENE,61,3.0,8.0,48,0.00,,---,0.00,VWS V14.01,2013-01-22 16:44:00,
2013-01-22 10:45:00,21.0,4.8,30.45,NE,54,3.0,8.0,49,0.00,,---,0.00,VWS V14.01,2013-01-22 16:45:00,
2013-01-22 10:46:00,21.1,4.9,30.45,NE,56,1.0,8.0,49,0.00,,---,0.00,VWS V14.01,2013-01-22 16:46:00,
2013-01-22 10:47:00,21.2,4.6,30.45,NE,56,7.0,9.0,48,0.00,,---,0.00,VWS V14.01,2013-01-22 16:47:00,
2013-01-22 10:49:00,21.2,5.0,30.45,NNW,335,5.0,9.0,49,0.00,,---,0.00,VWS V14.01,2013-01-22 16:49:00,
2013-01-22 10:50:00,21.3,4.7,30.45,NNW,330,6.0,9.0,48,0.00,,---,0.00,VWS V14.01,2013-01-22 16:50:00,
2013-01-22 10:51:00,21.4,5.2,30.45,NNW,343,6.0,9.0,49,0.00,,---,0.00,VWS V14.01,2013-01-22 16:51:00,
2013-01-22 10:52:00,21.6,5.4,30.45,NNW,343,4.0,9.0,49,0.00,,---,0.00,VWS V14.01,2013-01-22 16:52:00,
2013-01-22 10:54:00,21.6,5.4,30.44,NW,307,5.0,9.0,49,0.00,,---,0.00,VWS V14.01,2013-01-22 16:54:00,
2013-01-22 10:56:00,21.5,4.9,30.44,NW,308,2.0,9.0,48,0.00,,---,0.00,VWS V14.01,2013-01-22 16:56:00,
2013-01-22 10:57:00,21.7,5.9,30.44,NW,320,2.0,9.0,50,0.00,,---,0.00,VWS V14.01,2013-01-22 16:57:00,
2013-01-22 11:00:00,21.7,5.1,30.44,NE,52,5.0,8.0,48,0.00,,---,0.00,VWS V14.01,2013-01-22 17:00:00,
2013-01-22 11:01:00,21.7,5.5,30.44,NNE,24,4.0,8.0,49,0.00,,---,0.00,VWS V14.01,2013-01-22 17:01:00,
2013-01-22 11:02:00,21.6,5.0,30.44,NE,46,5.0,8.0,48,0.00,,---,0.00,VWS V14.01,2013-01-22 17:02:00,
2013-01-22 11:03:00,21.5,4.9,30.44,NE,56,3.0,8.0,48,0.00,,---,0.00,VWS V14.01,2013-01-22 17:03:00,
2013-01-22 11:05:00,21.3,4.7,30.44,North,356,6.0,8.0,48,0.00,,---,0.00,VWS V14.01,2013-01-22 17:05:00,
2013-01-22 11:06:00,21.3,4.7,30.44,North,356,6.0,8.0,48,0.00,,---,0.00,VWS V14.01,2013-01-22 17:06:00,
2013-01-22 11:07:00,21.4,4.8,30.44,North,8,4.0,8.0,48,0.00,,---,0.00,VWS V14.01,2013-01-22 17:07:00,
2013-01-22 11:08:00,21.7,5.1,30.44,NNW,347,3.0,8.0,48,0.00,,---,0.00,VWS V14.01,2013-01-22 17:08:00,
2013-01-22 11:10:00,21.8,5.1,30.44,NNW,345,7.0,8.0,48,0.00,,---,0.00,VWS V14.01,2013-01-22 17:10:00,
2013-01-22 11:11:00,21.8,5.1,30.44,NNE,12,6.0,8.0,48,0.00,,---,0.00,VWS V14.01,2013-01-22 17:11:00,
2013-01-22 11:12:00,21.7,4.6,30.44,NNE,14,4.0,8.0,47,0.00,,---,0.00,VWS V14.01,2013-01-22 17:12:00,
2013-01-22 11:13:00,21.7,5.1,30.44,NW,318,4.0,8.0,48,0.00,,---,0.00,VWS V14.01,2013-01-22 17:13:00,
2013-01-22 11:15:00,22.0,5.3,30.45,NW,312,4.0,8.0,48,0.00,,---,0.00,VWS V14.01,2013-01-22 17:15:00,
2013-01-22 11:16:00,22.0,5.3,30.45,NW,320,8.0,8.0,48,0.00,,---,0.00,VWS V14.01,2013-01-22 17:16:00,
2013-01-22 11:17:00,22.0,5.3,30.45,West,274,7.0,9.0,48,0.00,,---,0.00,VWS V14.01,2013-01-22 17:17:00,
2013-01-22 11:18:00,22.1,5.4,30.45,NNW,339,3.0,9.0,48,0.00,,---,0.00,VWS V14.01,2013-01-22 17:18:00,
2013-01-22 11:21:00,22.3,5.6,30.45,NNW,335,3.0,9.0,48,0.00,,---,0.00,VWS V14.01,2013-01-22 17:21:00,
2013-01-22 11:22:00,22.4,5.7,30.45,North,4,4.0,9.0,48,0.00,,---,0.00,VWS V14.01,2013-01-22 17:22:00,
2013-01-22 11:24:00,22.5,5.8,30.45,WNW,299,2.0,9.0,48,0.00,,---,0.00,VWS V14.01,2013-01-22 17:24:00,
2013-01-22 11:27:00,22.7,6.0,30.45,NW,312,2.0,9.0,48,0.00,,---,0.00,VWS V14.01,2013-01-22 17:27:00,
2013-01-22 11:29:00,22.5,4.9,30.45,NNW,341,4.0,5.0,46,0.00,,---,0.00,VWS V14.01,2013-01-22 17:29:00,
2013-01-22 11:30:00,22.6,5.4,30.45,North,6,1.0,9.0,47,0.00,,---,0.00,VWS V14.01,2013-01-22 17:30:00,
2013-01-22 11:32:00,22.4,4.8,30.45,North,6,2.0,5.0,46,0.00,,---,0.00,VWS V14.01,2013-01-22 17:32:00,
2013-01-22 11:33:00,22.5,5.3,30.45,North,6,0.0,5.0,47,0.00,,---,0.00,VWS V14.01,2013-01-22 17:33:00,
2013-01-22 11:34:00,22.6,5.9,30.44,NNW,330,3.0,5.0,48,0.00,,---,0.00,VWS V14.01,2013-01-22 17:34:00,
2013-01-22 11:37:00,22.7,6.0,30.44,NNE,25,1.0,5.0,48,0.00,,---,0.00,VWS V14.01,2013-01-22 17:37:00,
2013-01-22 11:38:00,22.7,6.0,30.44,North,10,2.0,5.0,48,0.00,,---,0.00,VWS V14.01,2013-01-22 17:38:00,
2013-01-22 11:39:00,22.9,6.2,30.44,NNW,330,5.0,8.0,48,0.00,,---,0.00,VWS V14.01,2013-01-22 17:39:00,
2013-01-22 11:43:00,23.1,6.8,30.44,NW,325,5.0,8.0,49,0.00,,---,0.00,VWS V14.01,2013-01-22 17:43:00,
2013-01-22 11:44:00,23.0,6.2,30.44,West,268,1.0,8.0,48,0.00,,---,0.00,VWS V14.01,2013-01-22 17:44:00,
2013-01-22 11:48:00,22.6,5.4,30.44,NNE,14,2.0,9.0,47,0.00,,---,0.00,VWS V14.01,2013-01-22 17:48:00,
2013-01-22 11:50:00,22.7,6.0,30.44,NNE,12,3.0,9.0,48,0.00,,---,0.00,VWS V14.01,2013-01-22 17:50:00,
2013-01-22 11:53:00,22.8,6.1,30.44,NNE,26,0.0,9.0,48,0.00,,---,0.00,VWS V14.01,2013-01-22 17:53:00,
2013-01-22 11:55:00,22.9,6.2,30.43,ENE,75,1.0,9.0,48,0.00,,---,0.00,VWS V14.01,2013-01-22 17:55:00,
2013-01-22 11:58:00,23.1,6.8,30.43,NNE,24,4.0,4.0,49,0.00,,---,0.00,VWS V14.01,2013-01-22 17:58:00,
2013-01-22 12:00:00,23.1,6.3,30.43,ENE,74,1.0,7.0,48,0.00,,---,0.00,VWS V14.01,2013-01-22 18:00:00,
2013-01-22 12:03:00,23.5,8.1,30.43,East,91,4.0,7.0,51,0.00,,---,0.00,VWS V14.01,2013-01-22 18:03:00,
2013-01-22 12:05:00,23.3,6.5,30.42,East,98,2.0,7.0,48,0.00,,---,0.00,VWS V14.01,2013-01-22 18:05:00,
2013-01-22 12:08:00,23.1,7.2,30.42,NE,53,3.0,7.0,50,0.00,,---,0.00,VWS V14.01,2013-01-22 18:08:00,
2013-01-22 12:11:00,22.9,6.2,30.42,SSE,168,2.0,7.0,48,0.00,,---,0.00,VWS V14.01,2013-01-22 18:11:00,
2013-01-22 12:14:00,23.2,6.4,30.42,North,357,0.0,7.0,48,0.00,,---,0.00,VWS V14.01,2013-01-22 18:14:00,
2013-01-22 12:16:00,23.3,6.5,30.42,North,357,0.0,7.0,48,0.00,,---,0.00,VWS V14.01,2013-01-22 18:16:00,
2013-01-22 12:19:00,24.0,8.1,30.41,NE,46,4.0,7.0,50,0.00,,---,0.00,VWS V14.01,2013-01-22 18:19:00,
2013-01-22 12:21:00,24.1,7.3,30.42,NNE,14,5.0,7.0,48,0.00,,---,0.00,VWS V14.01,2013-01-22 18:21:00,
2013-01-22 12:24:00,23.6,5.9,30.42,NNE,25,4.0,7.0,46,0.00,,---,0.00,VWS V14.01,2013-01-22 18:24:00,
2013-01-22 12:26:00,23.4,6.2,30.42,NE,46,2.0,7.0,47,0.00,,---,0.00,VWS V14.01,2013-01-22 18:26:00,
2013-01-22 12:29:00,23.9,6.6,30.42,NNW,345,1.0,4.0,47,0.00,,---,0.00,VWS V14.01,2013-01-22 18:29:00,
2013-01-22 12:30:00,23.8,6.1,30.42,NNW,345,1.0,4.0,46,0.00,,---,0.00,VWS V14.01,2013-01-22 18:30:00,
2013-01-22 12:31:00,24.0,7.2,30.42,NNW,345,1.0,4.0,48,0.00,,---,0.00,VWS V14.01,2013-01-22 18:31:00,
2013-01-22 12:34:00,24.4,7.5,30.41,North,352,5.0,7.0,48,0.00,,---,0.00,VWS V14.01,2013-01-22 18:34:00,
2013-01-22 12:35:00,24.4,7.5,30.41,North,354,6.0,7.0,48,0.00,,---,0.00,VWS V14.01,2013-01-22 18:35:00,
2013-01-22 12:36:00,24.2,5.9,30.41,NNE,26,3.0,7.0,45,0.00,,---,0.00,VWS V14.01,2013-01-22 18:36:00,
2013-01-22 12:39:00,24.2,6.9,30.41,NNE,27,4.0,7.0,47,0.00,,---,0.00,VWS V14.01,2013-01-22 18:39:00,
2013-01-22 12:40:00,24.1,6.3,30.41,NNE,29,3.0,7.0,46,0.00,,---,0.00,VWS V14.01,2013-01-22 18:40:00,
2013-01-22 12:41:00,24.0,6.7,30.41,NNE,31,3.0,7.0,47,0.00,,---,0.00,VWS V14.01,2013-01-22 18:41:00,
2013-01-22 12:44:00,24.1,6.3,30.41,WNW,300,2.0,7.0,46,0.00,,---,0.00,VWS V14.01,2013-01-22 18:44:00,
2013-01-22 12:45:00,24.0,5.8,30.41,WNW,300,1.0,7.0,45,0.00,,---,0.00,VWS V14.01,2013-01-22 18:45:00,
2013-01-22 12:47:00,24.3,6.5,30.41,NW,325,0.0,7.0,46,0.00,,---,0.00,VWS V14.01,2013-01-22 18:47:00,
2013-01-22 12:50:00,24.0,5.8,30.41,NNW,341,0.0,7.0,45,0.00,,---,0.00,VWS V14.01,2013-01-22 18:50:00,
2013-01-22 12:51:00,24.3,7.0,30.41,NNW,341,1.0,7.0,47,0.00,,---,0.00,VWS V14.01,2013-01-22 18:51:00,
2013-01-22 12:52:00,24.2,5.9,30.41,NNW,341,0.0,7.0,45,0.00,,---,0.00,VWS V14.01,2013-01-22 18:52:00,
2013-01-22 12:55:00,24.2,6.4,30.41,NNW,341,0.0,7.0,46,0.00,,---,0.00,VWS V14.01,2013-01-22 18:55:00,
2013-01-22 12:56:00,24.4,7.1,30.41,NNW,341,0.0,7.0,47,0.00,,---,0.00,VWS V14.01,2013-01-22 18:56:00,
2013-01-22 12:57:00,24.4,6.1,30.41,NNW,341,0.0,7.0,45,0.00,,---,0.00,VWS V14.01,2013-01-22 18:57:00,
2013-01-22 13:00:00,24.8,7.4,30.41,ESE,114,5.0,5.0,47,0.00,,---,0.00,VWS V14.01,2013-01-22 19:00:00,
2013-01-22 13:01:00,24.6,6.3,30.41,SE,128,3.0,5.0,45,0.00,,---,0.00,VWS V14.01,2013-01-22 19:01:00,
2013-01-22 13:02:00,24.4,6.1,30.41,SE,129,3.0,5.0,45,0.00,,---,0.00,VWS V14.01,2013-01-22 19:02:00,
2013-01-22 13:05:00,24.1,5.3,30.41,SSE,155,0.0,5.0,44,0.00,,---,0.00,VWS V14.01,2013-01-22 19:05:00,
2013-01-22 13:06:00,24.2,5.9,30.41,East,79,4.0,5.0,45,0.00,,---,0.00,VWS V14.01,2013-01-22 19:06:00,
2013-01-22 13:07:00,24.3,6.0,30.41,East,82,3.0,5.0,45,0.00,,---,0.00,VWS V14.01,2013-01-22 19:07:00,
2013-01-22 13:10:00,24.3,6.0,30.41,ENE,77,1.0,5.0,45,0.00,,---,0.00,VWS V14.01,2013-01-22 19:10:00,
2013-01-22 13:11:00,24.2,6.4,30.41,ENE,77,1.0,5.0,46,0.00,,---,0.00,VWS V14.01,2013-01-22 19:11:00,
2013-01-22 13:12:00,24.3,6.0,30.40,ENE,77,2.0,5.0,45,0.00,,---,0.00,VWS V14.01,2013-01-22 19:12:00,
2013-01-22 13:15:00,24.3,6.0,30.40,ENE,69,0.0,5.0,45,0.00,,---,0.00,VWS V14.01,2013-01-22 19:15:00,
2013-01-22 13:16:00,24.3,6.5,30.40,ENE,69,1.0,5.0,46,0.00,,---,0.00,VWS V14.01,2013-01-22 19:16:00,
2013-01-22 13:17:00,24.3,6.5,30.40,ENE,69,0.0,5.0,46,0.00,,---,0.00,VWS V14.01,2013-01-22 19:17:00,
2013-01-22 13:22:00,24.3,6.5,30.40,SSE,147,2.0,5.0,46,0.00,,---,0.00,VWS V14.01,2013-01-22 19:22:00,
2013-01-22 13:23:00,24.3,6.5,30.40,SSE,147,2.0,5.0,46,0.00,,---,0.00,VWS V14.01,2013-01-22 19:23:00,
2013-01-22 13:27:00,24.9,7.5,30.40,ENE,61,7.0,7.0,47,0.00,,---,0.00,VWS V14.01,2013-01-22 19:27:00,
2013-01-22 13:28:00,24.8,7.4,30.40,NE,52,6.0,6.0,47,0.00,,---,0.00,VWS V14.01,2013-01-22 19:28:00,
2013-01-22 13:30:00,24.8,7.4,30.40,NE,52,6.0,8.0,47,0.00,,---,0.00,VWS V14.01,2013-01-22 19:30:00,
2013-01-22 13:32:00,24.7,7.3,30.40,ENE,57,5.0,6.0,47,0.00,,---,0.00,VWS V14.01,2013-01-22 19:32:00,
2013-01-22 13:33:00,24.7,7.3,30.40,NE,35,3.0,6.0,47,0.00,,---,0.00,VWS V14.01,2013-01-22 19:33:00,
2013-01-22 13:37:00,24.7,7.3,30.39,ENE,59,5.0,7.0,47,0.00,,---,0.00,VWS V14.01,2013-01-22 19:37:00,
2013-01-22 13:38:00,24.8,7.9,30.39,NNE,31,4.0,7.0,48,0.00,,---,0.00,VWS V14.01,2013-01-22 19:38:00,
2013-01-22 13:42:00,25.1,7.7,30.40,WNW,294,4.0,7.0,47,0.00,,---,0.00,VWS V14.01,2013-01-22 19:42:00,
2013-01-22 13:43:00,25.2,7.8,30.40,NW,311,3.0,7.0,47,0.00,,---,0.00,VWS V14.01,2013-01-22 19:43:00,
2013-01-22 13:48:00,25.0,7.2,30.39,ENE,60,6.0,7.0,46,0.00,,---,0.00,VWS V14.01,2013-01-22 19:48:00,
2013-01-22 13:53:00,24.5,7.2,30.39,NE,46,3.0,8.0,47,0.00,,---,0.00,VWS V14.01,2013-01-22 19:53:00,
2013-01-22 13:54:00,24.6,7.3,30.39,NE,46,3.0,8.0,47,0.00,,---,0.00,VWS V14.01,2013-01-22 19:54:00,
2013-01-22 13:58:00,24.6,7.3,30.40,East,85,0.0,1.0,47,0.00,,---,0.00,VWS V14.01,2013-01-22 19:58:00,
2013-01-22 13:59:00,24.6,7.3,30.40,East,85,2.0,2.0,47,0.00,,---,0.00,VWS V14.01,2013-01-22 19:59:00,
2013-01-22 14:00:00,24.6,6.8,30.39,East,85,0.0,8.0,46,0.00,,---,0.00,VWS V14.01,2013-01-22 20:00:00,
2013-01-22 14:03:00,24.6,6.8,30.40,NNE,28,0.0,4.0,46,0.00,,---,0.00,VWS V14.01,2013-01-22 20:03:00,
2013-01-22 14:04:00,24.6,6.8,30.39,NNE,28,0.0,4.0,46,0.00,,---,0.00,VWS V14.01,2013-01-22 20:04:00,
2013-01-22 14:09:00,24.8,7.0,30.39,North,9,0.0,4.0,46,0.00,,---,0.00,VWS V14.01,2013-01-22 20:09:00,
2013-01-22 14:10:00,24.8,7.4,30.39,North,9,1.0,4.0,47,0.00,,---,0.00,VWS V14.01,2013-01-22 20:10:00,
2013-01-22 14:14:00,24.7,6.9,30.39,ENE,58,0.0,4.0,46,0.00,,---,0.00,VWS V14.01,2013-01-22 20:14:00,
2013-01-22 14:15:00,24.7,7.3,30.39,ENE,58,2.0,4.0,47,0.00,,---,0.00,VWS V14.01,2013-01-22 20:15:00,
2013-01-22 14:19:00,25.0,8.1,30.39,ENE,58,2.0,4.0,48,0.00,,---,0.00,VWS V14.01,2013-01-22 20:19:00,
2013-01-22 14:20:00,25.0,8.1,30.39,ENE,58,2.0,4.0,48,0.00,,---,0.00,VWS V14.01,2013-01-22 20:20:00,
2013-01-22 14:24:00,25.1,7.7,30.39,NNE,29,1.0,5.0,47,0.00,,---,0.00,VWS V14.01,2013-01-22 20:24:00,
2013-01-22 14:25:00,25.1,7.7,30.39,NNE,29,2.0,5.0,47,0.00,,---,0.00,VWS V14.01,2013-01-22 20:25:00,
2013-01-22 14:30:00,25.2,7.8,30.39,ESE,108,7.0,7.0,47,0.00,,---,0.00,VWS V14.01,2013-01-22 20:30:00,
2013-01-22 14:35:00,24.8,7.0,30.39,ESE,111,2.0,7.0,46,0.00,,---,0.00,VWS V14.01,2013-01-22 20:35:00,
2013-01-22 14:40:00,24.9,7.5,30.39,ESE,111,2.0,7.0,47,0.00,,---,0.00,VWS V14.01,2013-01-22 20:40:00,
2013-01-22 14:45:00,24.9,7.5,30.39,ESE,111,2.0,7.0,47,0.00,,---,0.00,VWS V14.01,2013-01-22 20:45:00,
2013-01-22 14:46:00,24.9,7.5,30.39,ESE,111,2.0,7.0,47,0.00,,---,0.00,VWS V14.01,2013-01-22 20:46:00,
2013-01-22 14:50:00,24.8,7.4,30.39,ENE,74,2.0,7.0,47,0.00,,---,0.00,VWS V14.01,2013-01-22 20:50:00,
2013-01-22 14:51:00,24.8,7.4,30.39,ENE,74,0.0,7.0,47,0.00,,---,0.00,VWS V14.01,2013-01-22 20:51:00,
2013-01-22 14:55:00,24.8,7.4,30.39,ENE,70,3.0,7.0,47,0.00,,---,0.00,VWS V14.01,2013-01-22 20:55:00,
2013-01-22 14:56:00,24.9,7.1,30.39,ENE,70,1.0,7.0,46,0.00,,---,0.00,VWS V14.01,2013-01-22 20:56:00,
2013-01-22 15:00:00,24.8,7.4,30.39,ENE,65,0.0,5.0,47,0.00,,---,0.00,VWS V14.01,2013-01-22 21:00:00,
2013-01-22 15:01:00,24.8,7.4,30.39,ENE,65,0.0,5.0,47,0.00,,---,0.00,VWS V14.01,2013-01-22 21:01:00,
2013-01-22 15:02:00,24.9,8.0,30.39,ENE,66,0.0,5.0,48,0.00,,---,0.00,VWS V14.01,2013-01-22 21:02:00,
2013-01-22 15:05:00,25.0,7.6,30.39,NE,45,2.0,5.0,47,0.00,,---,0.00,VWS V14.01,2013-01-22 21:05:00,
2013-01-22 15:06:00,25.0,7.6,30.39,NE,45,1.0,5.0,47,0.00,,---,0.00,VWS V14.01,2013-01-22 21:06:00,
2013-01-22 15:07:00,25.1,8.2,30.39,NE,45,1.0,5.0,48,0.00,,---,0.00,VWS V14.01,2013-01-22 21:07:00,
2013-01-22 15:10:00,25.2,8.7,30.39,East,82,5.0,5.0,49,0.00,,---,0.00,VWS V14.01,2013-01-22 21:10:00,
2013-01-22 15:11:00,25.3,8.8,30.39,ESE,123,4.0,5.0,49,0.00,,---,0.00,VWS V14.01,2013-01-22 21:11:00,
2013-01-22 15:12:00,25.3,7.9,30.39,ESE,120,4.0,5.0,47,0.00,,---,0.00,VWS V14.01,2013-01-22 21:12:00,
2013-01-22 15:15:00,25.3,8.4,30.39,ESE,114,2.0,5.0,48,0.00,,---,0.00,VWS V14.01,2013-01-22 21:15:00,
2013-01-22 15:17:00,25.3,8.8,30.39,ESE,114,2.0,5.0,49,0.00,,---,0.00,VWS V14.01,2013-01-22 21:17:00,
2013-01-22 15:21:00,25.3,8.4,30.39,SSE,148,4.0,6.0,48,0.00,,---,0.00,VWS V14.01,2013-01-22 21:21:00,
2013-01-22 15:22:00,25.3,8.4,30.39,SSE,148,3.0,6.0,48,0.00,,---,0.00,VWS V14.01,2013-01-22 21:22:00,
2013-01-22 15:23:00,25.2,8.3,30.39,SSE,147,3.0,6.0,48,0.00,,---,0.00,VWS V14.01,2013-01-22 21:23:00,
2013-01-22 15:26:00,25.1,7.7,30.39,SE,137,1.0,6.0,47,0.00,,---,0.00,VWS V14.01,2013-01-22 21:26:00,
2013-01-22 15:27:00,25.0,7.6,30.39,SE,137,1.0,6.0,47,0.00,,---,0.00,VWS V14.01,2013-01-22 21:27:00,
2013-01-22 15:28:00,25.0,7.6,30.39,SE,137,1.0,2.0,47,0.00,,---,0.00,VWS V14.01,2013-01-22 21:28:00,
2013-01-22 15:30:00,25.0,7.6,30.39,SE,137,0.0,6.0,47,0.00,,---,0.00,VWS V14.01,2013-01-22 21:30:00,
2013-01-22 15:31:00,25.1,8.6,30.39,SE,137,3.0,4.0,49,0.00,,---,0.00,VWS V14.01,2013-01-22 21:31:00,
2013-01-22 15:32:00,25.2,8.7,30.39,SE,136,2.0,4.0,49,0.00,,---,0.00,VWS V14.01,2013-01-22 21:32:00,
2013-01-22 15:34:00,25.1,7.7,30.39,SE,134,1.0,4.0,47,0.00,,---,0.00,VWS V14.01,2013-01-22 21:34:00,
2013-01-22 15:36:00,25.1,7.7,30.39,SE,134,2.0,4.0,47,0.00,,---,0.00,VWS V14.01,2013-01-22 21:36:00,
2013-01-22 15:38:00,25.2,8.7,30.39,ENE,74,4.0,7.0,49,0.00,,---,0.00,VWS V14.01,2013-01-22 21:38:00,
2013-01-22 15:39:00,25.2,8.3,30.39,ENE,75,4.0,7.0,48,0.00,,---,0.00,VWS V14.01,2013-01-22 21:39:00,
2013-01-22 15:41:00,25.1,8.2,30.39,ESE,116,4.0,7.0,48,0.00,,---,0.00,VWS V14.01,2013-01-22 21:41:00,
2013-01-22 15:42:00,25.1,8.2,30.39,ESE,115,3.0,7.0,48,0.00,,---,0.00,VWS V14.01,2013-01-22 21:42:00,
2013-01-22 15:43:00,25.0,8.1,30.39,SE,131,3.0,7.0,48,0.00,,---,0.00,VWS V14.01,2013-01-22 21:43:00,
2013-01-22 15:44:00,25.0,8.1,30.39,SE,131,3.0,7.0,48,0.00,,---,0.00,VWS V14.01,2013-01-22 21:44:00,
2013-01-22 15:46:00,24.9,8.5,30.39,SE,125,5.0,7.0,49,0.00,,---,0.00,VWS V14.01,2013-01-22 21:46:00,
2013-01-22 15:47:00,24.9,8.5,30.39,SE,125,5.0,7.0,49,0.00,,---,0.00,VWS V14.01,2013-01-22 21:47:00,
2013-01-22 15:48:00,25.0,9.0,30.39,East,83,5.0,7.0,50,0.00,,---,0.00,VWS V14.01,2013-01-22 21:48:00,
2013-01-22 15:49:00,25.0,9.0,30.39,East,83,5.0,7.0,50,0.00,,---,0.00,VWS V14.01,2013-01-22 21:49:00,
2013-01-22 15:51:00,25.1,9.5,30.39,ESE,123,5.0,7.0,51,0.00,,---,0.00,VWS V14.01,2013-01-22 21:51:00,
2013-01-22 15:52:00,25.1,9.5,30.39,ESE,118,7.0,7.0,51,0.00,,---,0.00,VWS V14.01,2013-01-22 21:52:00,
2013-01-22 15:53:00,25.0,9.0,30.39,ESE,118,3.0,7.0,50,0.00,,---,0.00,VWS V14.01,2013-01-22 21:53:00,
2013-01-22 15:54:00,25.0,9.0,30.39,ESE,118,3.0,7.0,50,0.00,,---,0.00,VWS V14.01,2013-01-22 21:54:00,
2013-01-22 15:56:00,24.9,9.4,30.39,East,90,5.0,7.0,51,0.00,,---,0.00,VWS V14.01,2013-01-22 21:56:00,
2013-01-22 15:57:00,24.9,9.4,30.39,East,100,5.0,7.0,51,0.00,,---,0.00,VWS V14.01,2013-01-22 21:57:00,
2013-01-22 15:59:00,24.9,8.9,30.39,SE,124,5.0,5.0,50,0.00,,---,0.00,VWS V14.01,2013-01-22 21:59:00,
2013-01-22 16:00:00,24.9,8.9,30.39,ESE,117,4.0,7.0,50,0.00,,---,0.00,VWS V14.01,2013-01-22 22:00:00,
2013-01-22 16:02:00,24.8,8.4,30.38,ESE,118,4.0,7.0,49,0.00,,---,0.00,VWS V14.01,2013-01-22 22:02:00,
2013-01-22 16:04:00,24.8,8.4,30.38,SE,141,3.0,7.0,49,0.00,,---,0.00,VWS V14.01,2013-01-22 22:04:00,
2013-01-22 16:07:00,24.8,8.4,30.38,SE,129,1.0,7.0,49,0.00,,---,0.00,VWS V14.01,2013-01-22 22:07:00,
2013-01-22 16:09:00,24.8,8.8,30.38,SE,139,4.0,7.0,50,0.00,,---,0.00,VWS V14.01,2013-01-22 22:09:00,
2013-01-22 16:12:00,24.9,9.4,30.38,ESE,106,4.0,7.0,51,0.00,,---,0.00,VWS V14.01,2013-01-22 22:12:00,
2013-01-22 16:14:00,24.9,9.4,30.38,SE,141,2.0,7.0,51,0.00,,---,0.00,VWS V14.01,2013-01-22 22:14:00,
2013-01-22 16:17:00,24.9,9.4,30.38,East,101,6.0,8.0,51,0.00,,---,0.00,VWS V14.01,2013-01-22 22:17:00,
2013-01-22 16:19:00,24.9,8.9,30.38,East,84,4.0,8.0,50,0.00,,---,0.00,VWS V14.01,2013-01-22 22:19:00,
2013-01-22 16:22:00,24.8,8.8,30.38,East,100,3.0,8.0,50,0.00,,---,0.00,VWS V14.01,2013-01-22 22:22:00,
2013-01-22 16:24:00,24.8,8.8,30.38,East,99,5.0,8.0,50,0.00,,---,0.00,VWS V14.01,2013-01-22 22:24:00,
2013-01-22 16:27:00,24.8,9.2,30.38,ESE,117,4.0,8.0,51,0.00,,---,0.00,VWS V14.01,2013-01-22 22:27:00,
2013-01-22 16:29:00,24.8,9.2,30.38,ESE,107,6.0,7.0,51,0.00,,---,0.00,VWS V14.01,2013-01-22 22:29:00,
2013-01-22 16:30:00,24.8,9.2,30.38,ESE,111,4.0,8.0,51,0.00,,---,0.00,VWS V14.01,2013-01-22 22:30:00,
2013-01-22 16:32:00,24.7,9.2,30.38,ESE,116,3.0,7.0,51,0.00,,---,0.00,VWS V14.01,2013-01-22 22:32:00,
2013-01-22 16:34:00,24.8,9.7,30.38,SE,135,4.0,7.0,52,0.00,,---,0.00,VWS V14.01,2013-01-22 22:34:00,
2013-01-22 16:35:00,24.8,9.7,30.38,SE,135,4.0,7.0,52,0.00,,---,0.00,VWS V14.01,2013-01-22 22:35:00,
2013-01-22 16:38:00,24.8,9.2,30.39,ESE,123,5.0,7.0,51,0.00,,---,0.00,VWS V14.01,2013-01-22 22:38:00,
2013-01-22 16:39:00,24.7,9.2,30.38,ESE,123,5.0,7.0,51,0.00,,---,0.00,VWS V14.01,2013-01-22 22:39:00,
2013-01-22 16:40:00,24.7,9.2,30.38,SE,132,5.0,7.0,51,0.00,,---,0.00,VWS V14.01,2013-01-22 22:40:00,
2013-01-22 16:43:00,24.7,9.2,30.38,SE,131,2.0,7.0,51,0.00,,---,0.00,VWS V14.01,2013-01-22 22:43:00,
2013-01-22 16:45:00,24.7,9.2,30.38,SE,127,3.0,7.0,51,0.00,,---,0.00,VWS V14.01,2013-01-22 22:45:00,
2013-01-22 16:46:00,24.7,9.2,30.38,SE,127,2.0,7.0,51,0.00,,---,0.00,VWS V14.01,2013-01-22 22:46:00,
2013-01-22 16:49:00,24.7,9.6,30.38,SE,127,3.0,7.0,52,0.00,,---,0.00,VWS V14.01,2013-01-22 22:49:00,
2013-01-22 16:50:00,24.7,9.2,30.38,SE,127,3.0,7.0,51,0.00,,---,0.00,VWS V14.01,2013-01-22 22:50:00,
2013-01-22 16:51:00,24.7,9.2,30.38,SE,127,2.0,7.0,51,0.00,,---,0.00,VWS V14.01,2013-01-22 22:51:00,
2013-01-22 16:54:00,24.7,9.2,30.38,SE,127,3.0,7.0,51,0.00,,---,0.00,VWS V14.01,2013-01-22 22:54:00,
2013-01-22 16:55:00,24.7,9.2,30.38,SE,127,2.0,7.0,51,0.00,,---,0.00,VWS V14.01,2013-01-22 22:55:00,
2013-01-22 16:57:00,24.7,9.2,30.38,SE,127,4.0,7.0,51,0.00,,---,0.00,VWS V14.01,2013-01-22 22:57:00,
2013-01-22 16:59:00,24.8,10.1,30.38,SE,127,2.0,3.0,53,0.00,,---,0.00,VWS V14.01,2013-01-22 22:59:00,
2013-01-22 17:00:00,24.8,9.7,30.38,SE,127,3.0,4.0,52,0.00,,---,0.00,VWS V14.01,2013-01-22 23:00:00,
2013-01-22 17:02:00,24.8,9.2,30.38,SE,127,3.0,4.0,51,0.00,,---,0.00,VWS V14.01,2013-01-22 23:02:00,
2013-01-22 17:04:00,24.8,9.7,30.38,SE,127,3.0,4.0,52,0.00,,---,0.00,VWS V14.01,2013-01-22 23:04:00,
2013-01-22 17:05:00,24.8,9.2,30.38,SE,127,3.0,4.0,51,0.00,,---,0.00,VWS V14.01,2013-01-22 23:05:00,
2013-01-22 17:06:00,24.7,9.2,30.38,SE,127,3.0,4.0,51,0.00,,---,0.00,VWS V14.01,2013-01-22 23:06:00,
2013-01-22 17:08:00,24.8,9.7,30.38,SE,127,3.0,4.0,52,0.00,,---,0.00,VWS V14.01,2013-01-22 23:08:00,
2013-01-22 17:10:00,24.7,9.2,30.38,SE,127,4.0,4.0,51,0.00,,---,0.00,VWS V14.01,2013-01-22 23:10:00,
2013-01-22 17:11:00,24.7,9.2,30.38,SE,127,3.0,4.0,51,0.00,,---,0.00,VWS V14.01,2013-01-22 23:11:00,
2013-01-22 17:13:00,24.8,9.2,30.38,SE,127,4.0,4.0,51,0.00,,---,0.00,VWS V14.01,2013-01-22 23:13:00,
2013-01-22 17:15:00,24.8,10.1,30.38,SE,127,3.0,4.0,53,0.00,,---,0.00,VWS V14.01,2013-01-22 23:15:00,
2013-01-22 17:17:00,24.8,9.7,30.38,SE,127,4.0,4.0,52,0.00,,---,0.00,VWS V14.01,2013-01-22 23:17:00,
2013-01-22 17:18:00,24.8,9.2,30.38,SE,127,4.0,4.0,51,0.00,,---,0.00,VWS V14.01,2013-01-22 23:18:00,
2013-01-22 17:20:00,24.8,9.2,30.38,SE,127,1.0,4.0,51,0.00,,---,0.00,VWS V14.01,2013-01-22 23:20:00,
2013-01-22 17:22:00,24.8,10.1,30.38,SE,127,2.0,4.0,53,0.00,,---,0.00,VWS V14.01,2013-01-22 23:22:00,
2013-01-22 17:23:00,24.8,10.1,30.38,SE,127,3.0,4.0,53,0.00,,---,0.00,VWS V14.01,2013-01-22 23:23:00,
2013-01-22 17:27:00,24.8,9.2,30.38,SE,127,2.0,4.0,51,0.00,,---,0.00,VWS V14.01,2013-01-22 23:27:00,
2013-01-22 17:28:00,24.8,9.2,30.38,SE,127,3.0,4.0,51,0.00,,---,0.00,VWS V14.01,2013-01-22 23:28:00,
2013-01-22 17:30:00,24.8,9.2,30.38,SE,127,2.0,4.0,51,0.00,,---,0.00,VWS V14.01,2013-01-22 23:30:00,
2013-01-22 17:32:00,24.8,9.2,30.37,SE,127,3.0,4.0,51,0.00,,---,0.00,VWS V14.01,2013-01-22 23:32:00,
2013-01-22 17:34:00,24.8,9.2,30.37,SE,127,3.0,4.0,51,0.00,,---,0.00,VWS V14.01,2013-01-22 23:34:00,
2013-01-22 17:37:00,24.8,9.2,30.37,SE,127,2.0,4.0,51,0.00,,---,0.00,VWS V14.01,2013-01-22 23:37:00,
2013-01-22 17:38:00,24.8,8.8,30.37,SE,127,2.0,4.0,50,0.00,,---,0.00,VWS V14.01,2013-01-22 23:38:00,
2013-01-22 17:39:00,24.8,10.1,30.37,SE,127,3.0,4.0,53,0.00,,---,0.00,VWS V14.01,2013-01-22 23:39:00,
2013-01-22 17:42:00,24.8,9.7,30.37,SE,127,1.0,4.0,52,0.00,,---,0.00,VWS V14.01,2013-01-22 23:42:00,
2013-01-22 17:43:00,24.8,9.2,30.37,SE,127,1.0,4.0,51,0.00,,---,0.00,VWS V14.01,2013-01-22 23:43:00,
2013-01-22 17:44:00,24.8,9.2,30.37,SE,127,2.0,4.0,51,0.00,,---,0.00,VWS V14.01,2013-01-22 23:44:00,
2013-01-22 17:47:00,24.8,9.7,30.37,SE,127,4.0,5.0,52,0.00,,---,0.00,VWS V14.01,2013-01-22 23:47:00,
2013-01-22 17:48:00,24.8,9.7,30.37,SE,125,5.0,6.0,52,0.00,,---,0.00,VWS V14.01,2013-01-22 23:48:00,
2013-01-22 17:49:00,24.8,9.7,30.37,SE,125,4.0,6.0,52,0.00,,---,0.00,VWS V14.01,2013-01-22 23:49:00,
2013-01-22 17:50:00,24.8,9.2,30.37,SE,125,2.0,6.0,51,0.00,,---,0.00,VWS V14.01,2013-01-22 23:50:00,
2013-01-22 17:52:00,24.8,9.2,30.37,SE,125,3.0,6.0,51,0.00,,---,0.00,VWS V14.01,2013-01-22 23:52:00,
2013-01-22 17:54:00,24.8,9.2,30.37,ESE,105,4.0,6.0,51,0.00,,---,0.00,VWS V14.01,2013-01-22 23:54:00,
2013-01-22 17:56:00,24.8,9.7,30.37,East,97,4.0,6.0,52,0.00,,---,0.00,VWS V14.01,2013-01-22 23:56:00,
2013-01-22 17:57:00,24.8,9.7,30.37,East,97,5.0,6.0,52,0.00,,---,0.00,VWS V14.01,2013-01-22 23:57:00,
2013-01-22 17:59:00,24.8,9.2,30.37,East,97,3.0,4.0,51,0.00,,---,0.00,VWS V14.01,2013-01-22 23:59:00,
2013-01-22 18:00:00,24.8,9.7,30.37,East,94,3.0,4.0,52,0.00,,---,0.00,VWS V14.01,2013-01-23 00:00:00,
2013-01-22 18:01:00,24.8,10.1,30.37,East,94,4.0,4.0,53,0.00,,---,0.00,VWS V14.01,2013-01-23 00:01:00,
2013-01-22 18:02:00,24.8,10.1,30.37,ENE,65,2.0,4.0,53,0.00,,---,0.00,VWS V14.01,2013-01-23 00:02:00,
2013-01-22 18:04:00,24.8,10.1,30.37,NE,54,3.0,5.0,53,0.00,,---,0.00,VWS V14.01,2013-01-23 00:04:00,
2013-01-22 18:05:00,24.8,9.7,30.37,NE,54,3.0,5.0,52,0.00,,---,0.00,VWS V14.01,2013-01-23 00:05:00,
2013-01-22 18:06:00,24.8,9.7,30.37,East,81,3.0,5.0,52,0.00,,---,0.00,VWS V14.01,2013-01-23 00:06:00,
2013-01-22 18:07:00,24.9,10.2,30.37,East,85,3.0,5.0,53,0.00,,---,0.00,VWS V14.01,2013-01-23 00:07:00,
2013-01-22 18:09:00,24.9,10.2,30.37,East,97,2.0,5.0,53,0.00,,---,0.00,VWS V14.01,2013-01-23 00:09:00,
2013-01-22 18:10:00,24.9,9.8,30.37,East,97,2.0,5.0,52,0.00,,---,0.00,VWS V14.01,2013-01-23 00:10:00,
2013-01-22 18:12:00,24.9,10.2,30.37,East,99,2.0,5.0,53,0.00,,---,0.00,VWS V14.01,2013-01-23 00:12:00,
2013-01-22 18:13:00,24.9,10.2,30.36,ESE,108,2.0,5.0,53,0.00,,---,0.00,VWS V14.01,2013-01-23 00:13:00,
2013-01-22 18:14:00,24.9,10.2,30.37,ESE,108,3.0,5.0,53,0.00,,---,0.00,VWS V14.01,2013-01-23 00:14:00,
2013-01-22 18:15:00,24.9,10.2,30.37,ESE,109,3.0,5.0,53,0.00,,---,0.00,VWS V14.01,2013-01-23 00:15:00,
2013-01-22 18:17:00,24.9,10.2,30.37,ESE,105,5.0,6.0,53,0.00,,---,0.00,VWS V14.01,2013-01-23 00:17:00,
2013-01-22 18:19:00,24.9,9.8,30.37,SE,127,3.0,6.0,52,0.00,,---,0.00,VWS V14.01,2013-01-23 00:19:00,
2013-01-22 18:20:00,24.9,9.8,30.37,ESE,118,5.0,6.0,52,0.00,,---,0.00,VWS V14.01,2013-01-23 00:20:00,
2013-01-22 18:22:00,24.8,9.7,30.37,ESE,118,4.0,6.0,52,0.00,,---,0.00,VWS V14.01,2013-01-23 00:22:00,
2013-01-22 18:24:00,24.8,9.2,30.37,ESE,118,3.0,6.0,51,0.00,,---,0.00,VWS V14.01,2013-01-23 00:24:00,
2013-01-22 18:26:00,24.8,9.7,30.37,ESE,118,0.0,6.0,52,0.00,,---,0.00,VWS V14.01,2013-01-23 00:26:00,
2013-01-22 18:27:00,24.8,9.7,30.37,ESE,118,1.0,6.0,52,0.00,,---,0.00,VWS V14.01,2013-01-23 00:27:00,
2013-01-22 18:29:00,24.8,9.2,30.37,ESE,118,2.0,3.0,51,0.00,,---,0.00,VWS V14.01,2013-01-23 00:29:00,
2013-01-22 18:30:00,24.8,9.2,30.37,ESE,118,3.0,3.0,51,0.00,,---,0.00,VWS V14.01,2013-01-23 00:30:00,
2013-01-22 18:32:00,24.8,10.1,30.37,ESE,118,3.0,4.0,53,0.00,,---,0.00,VWS V14.01,2013-01-23 00:32:00,
2013-01-22 18:34:00,24.8,10.1,30.37,ESE,114,4.0,6.0,53,0.00,,---,0.00,VWS V14.01,2013-01-23 00:34:00,
2013-01-22 18:35:00,24.8,10.1,30.36,ESE,112,5.0,6.0,53,0.00,,---,0.00,VWS V14.01,2013-01-23 00:35:00,
2013-01-22 18:37:00,24.8,9.7,30.36,ESE,112,3.0,6.0,52,0.00,,---,0.00,VWS V14.01,2013-01-23 00:37:00,
2013-01-22 18:39:00,24.8,10.5,30.36,ESE,112,2.0,6.0,54,0.00,,---,0.00,VWS V14.01,2013-01-23 00:39:00,
2013-01-22 18:40:00,24.8,10.5,30.36,ESE,112,3.0,6.0,54,0.00,,---,0.00,VWS V14.01,2013-01-23 00:40:00,
2013-01-22 18:42:00,24.8,10.1,30.36,ESE,112,3.0,6.0,53,0.00,,---,0.00,VWS V14.01,2013-01-23 00:42:00,
2013-01-22 18:43:00,24.8,10.1,30.36,ESE,112,2.0,6.0,53,0.00,,---,0.00,VWS V14.01,2013-01-23 00:43:00,
2013-01-22 18:45:00,24.8,9.7,30.36,ESE,112,3.0,6.0,52,0.00,,---,0.00,VWS V14.01,2013-01-23 00:45:00,
2013-01-22 18:48:00,24.7,9.6,30.36,ESE,112,2.0,6.0,52,0.00,,---,0.00,VWS V14.01,2013-01-23 00:48:00,
2013-01-22 18:50:00,24.7,9.6,30.36,ESE,112,2.0,6.0,52,0.00,,---,0.00,VWS V14.01,2013-01-23 00:50:00,
2013-01-22 18:53:00,24.7,10.0,30.36,ESE,112,4.0,6.0,53,0.00,,---,0.00,VWS V14.01,2013-01-23 00:53:00,
2013-01-22 18:55:00,24.7,10.0,30.36,ESE,110,4.0,6.0,53,0.00,,---,0.00,VWS V14.01,2013-01-23 00:55:00,
2013-01-22 18:58:00,24.7,10.0,30.36,ESE,110,4.0,4.0,53,0.00,,---,0.00,VWS V14.01,2013-01-23 00:58:00,
2013-01-22 18:59:00,24.7,10.0,30.36,ESE,110,2.0,4.0,53,0.00,,---,0.00,VWS V14.01,2013-01-23 00:59:00,
2013-01-22 19:00:00,24.7,10.0,30.36,ESE,110,2.0,4.0,53,0.00,,---,0.00,VWS V14.01,2013-01-23 01:00:00,
2013-01-22 19:03:00,24.7,10.0,30.36,ESE,110,2.0,4.0,53,0.00,,---,0.00,VWS V14.01,2013-01-23 01:03:00,
2013-01-22 19:05:00,24.7,10.4,30.36,ESE,110,2.0,4.0,54,0.00,,---,0.00,VWS V14.01,2013-01-23 01:05:00,
2013-01-22 19:06:00,24.7,10.0,30.36,ESE,110,1.0,4.0,53,0.00,,---,0.00,VWS V14.01,2013-01-23 01:06:00,
2013-01-22 19:08:00,24.7,10.0,30.36,ESE,110,2.0,4.0,53,0.00,,---,0.00,VWS V14.01,2013-01-23 01:08:00,
2013-01-22 19:10:00,24.8,10.5,30.36,ESE,110,1.0,4.0,54,0.00,,---,0.00,VWS V14.01,2013-01-23 01:10:00,
2013-01-22 19:11:00,24.8,10.5,30.36,ESE,110,1.0,4.0,54,0.00,,---,0.00,VWS V14.01,2013-01-23 01:11:00,
2013-01-22 19:13:00,24.8,10.9,30.36,ESE,110,1.0,4.0,55,0.00,,---,0.00,VWS V14.01,2013-01-23 01:13:00,
2013-01-22 19:15:00,24.8,10.5,30.36,ESE,110,1.0,4.0,54,0.00,,---,0.00,VWS V14.01,2013-01-23 01:15:00,
2013-01-22 19:16:00,24.8,10.1,30.36,ESE,110,2.0,4.0,53,0.00,,---,0.00,VWS V14.01,2013-01-23 01:16:00,
2013-01-22 19:17:00,24.8,10.1,30.36,ESE,110,2.0,4.0,53,0.00,,---,0.00,VWS V14.01,2013-01-23 01:17:00,
2013-01-22 19:18:00,24.8,10.1,30.37,ESE,110,2.0,4.0,53,0.00,,---,0.00,VWS V14.01,2013-01-23 01:18:00,
2013-01-22 19:20:00,24.8,10.1,30.37,ESE,110,2.0,4.0,53,0.00,,---,0.00,VWS V14.01,2013-01-23 01:20:00,
2013-01-22 19:22:00,24.8,10.5,30.36,ESE,110,1.0,4.0,54,0.00,,---,0.00,VWS V14.01,2013-01-23 01:22:00,
2013-01-22 19:23:00,24.8,10.1,30.36,ESE,110,1.0,4.0,53,0.00,,---,0.00,VWS V14.01,2013-01-23 01:23:00,
2013-01-22 19:25:00,24.8,10.5,30.37,ESE,110,2.0,4.0,54,0.00,,---,0.00,VWS V14.01,2013-01-23 01:25:00,
2013-01-22 19:27:00,24.8,10.5,30.37,ESE,110,5.0,5.0,54,0.00,,---,0.00,VWS V14.01,2013-01-23 01:27:00,
2013-01-22 19:28:00,24.8,10.1,30.37,ESE,110,4.0,4.0,53,0.00,,---,0.00,VWS V14.01,2013-01-23 01:28:00,
2013-01-22 19:30:00,24.8,10.5,30.37,ESE,110,3.0,5.0,54,0.00,,---,0.00,VWS V14.01,2013-01-23 01:30:00,
2013-01-22 19:31:00,24.8,10.5,30.37,ESE,110,3.0,4.0,54,0.00,,---,0.00,VWS V14.01,2013-01-23 01:31:00,
2013-01-22 19:32:00,24.8,10.5,30.36,ESE,110,2.0,4.0,54,0.00,,---,0.00,VWS V14.01,2013-01-23 01:32:00,
2013-01-22 19:33:00,24.8,10.1,30.36,ESE,110,2.0,4.0,53,0.00,,---,0.00,VWS V14.01,2013-01-23 01:33:00,
2013-01-22 19:34:00,24.8,10.1,30.36,ESE,110,3.0,4.0,53,0.00,,---,0.00,VWS V14.01,2013-01-23 01:34:00,
2013-01-22 19:36:00,24.8,10.9,30.36,ESE,110,2.0,4.0,55,0.00,,---,0.00,VWS V14.01,2013-01-23 01:36:00,
2013-01-22 19:37:00,24.8,10.9,30.36,ESE,110,3.0,4.0,55,0.00,,---,0.00,VWS V14.01,2013-01-23 01:37:00,
2013-01-22 19:39:00,24.9,11.0,30.36,ESE,110,2.0,4.0,55,0.00,,---,0.00,VWS V14.01,2013-01-23 01:39:00,
2013-01-22 19:41:00,24.8,10.9,30.36,ESE,110,2.0,4.0,55,0.00,,---,0.00,VWS V14.01,2013-01-23 01:41:00,
2013-01-22 19:42:00,24.8,10.9,30.36,SE,129,5.0,5.0,55,0.00,,---,0.00,VWS V14.01,2013-01-23 01:42:00,
2013-01-22 19:44:00,24.8,10.9,30.36,SE,137,4.0,5.0,55,0.00,,---,0.00,VWS V14.01,2013-01-23 01:44:00,
2013-01-22 19:47:00,24.8,10.9,30.36,SE,136,3.0,5.0,55,0.00,,---,0.00,VWS V14.01,2013-01-23 01:47:00,
2013-01-22 19:49:00,24.8,10.9,30.36,SE,136,3.0,5.0,55,0.00,,---,0.00,VWS V14.01,2013-01-23 01:49:00,
2013-01-22 19:50:00,24.8,10.9,30.36,SE,136,1.0,5.0,55,0.00,,---,0.00,VWS V14.01,2013-01-23 01:50:00,
2013-01-22 19:52:00,24.7,10.9,30.36,SE,136,3.0,5.0,55,0.00,,---,0.00,VWS V14.01,2013-01-23 01:52:00,
2013-01-22 19:54:00,24.7,10.4,30.36,SE,136,1.0,5.0,54,0.00,,---,0.00,VWS V14.01,2013-01-23 01:54:00,
2013-01-22 19:55:00,24.7,10.9,30.36,SE,136,2.0,5.0,55,0.00,,---,0.00,VWS V14.01,2013-01-23 01:55:00,
2013-01-22 19:57:00,24.7,11.2,30.36,SE,136,1.0,5.0,56,0.00,,---,0.00,VWS V14.01,2013-01-23 01:57:00,
2013-01-22 19:58:00,24.7,11.2,30.36,SE,136,0.0,5.0,56,0.00,,---,0.00,VWS V14.01,2013-01-23 01:58:00,
2013-01-22 20:00:00,24.7,10.9,30.36,SE,136,0.0,1.0,55,0.00,,---,0.00,VWS V14.01,2013-01-23 02:00:00,
2013-01-22 20:02:00,24.7,10.9,30.36,SE,136,2.0,3.0,55,0.00,,---,0.00,VWS V14.01,2013-01-23 02:02:00,
2013-01-22 20:05:00,24.7,11.6,30.36,SE,136,2.0,3.0,57,0.00,,---,0.00,VWS V14.01,2013-01-23 02:05:00,
2013-01-22 20:07:00,24.7,10.9,30.36,SE,136,0.0,3.0,55,0.00,,---,0.00,VWS V14.01,2013-01-23 02:07:00,
2013-01-22 20:08:00,24.7,10.9,30.36,SE,136,0.0,3.0,55,0.00,,---,0.00,VWS V14.01,2013-01-23 02:08:00,
2013-01-22 20:10:00,24.7,11.2,30.36,SE,136,2.0,3.0,56,0.00,,---,0.00,VWS V14.01,2013-01-23 02:10:00,
2013-01-22 20:11:00,24.7,11.2,30.36,SE,136,3.0,3.0,56,0.00,,---,0.00,VWS V14.01,2013-01-23 02:11:00,
2013-01-22 20:13:00,24.7,10.9,30.36,SE,136,2.0,3.0,55,0.00,,---,0.00,VWS V14.01,2013-01-23 02:13:00,
2013-01-22 20:15:00,24.7,11.2,30.36,SE,136,2.0,3.0,56,0.00,,---,0.00,VWS V14.01,2013-01-23 02:15:00,
2013-01-22 20:16:00,24.7,11.2,30.36,SE,136,1.0,3.0,56,0.00,,---,0.00,VWS V14.01,2013-01-23 02:16:00,
2013-01-22 20:18:00,24.7,11.2,30.36,SE,136,0.0,3.0,56,0.00,,---,0.00,VWS V14.01,2013-01-23 02:18:00,
2013-01-22 20:20:00,24.7,11.2,30.36,SE,136,2.0,3.0,56,0.00,,---,0.00,VWS V14.01,2013-01-23 02:20:00,
2013-01-22 20:21:00,24.7,10.9,30.36,SE,136,0.0,3.0,55,0.00,,---,0.00,VWS V14.01,2013-01-23 02:21:00,
2013-01-22 20:23:00,24.7,11.2,30.36,SE,136,1.0,3.0,56,0.00,,---,0.00,VWS V14.01,2013-01-23 02:23:00,
2013-01-22 20:24:00,24.7,11.2,30.36,SE,136,2.0,3.0,56,0.00,,---,0.00,VWS V14.01,2013-01-23 02:24:00,
2013-01-22 20:26:00,24.7,11.2,30.36,SE,136,1.0,3.0,56,0.00,,---,0.00,VWS V14.01,2013-01-23 02:26:00,
2013-01-22 20:29:00,24.7,11.2,30.36,SE,136,1.0,2.0,56,0.00,,---,0.00,VWS V14.01,2013-01-23 02:29:00,
2013-01-22 20:30:00,24.7,10.9,30.36,SE,136,0.0,3.0,55,0.00,,---,0.00,VWS V14.01,2013-01-23 02:30:00,
2013-01-22 21:00:00,24.4,12.1,30.36,SE,136,2.0,3.0,59,0.00,,---,0.00,VWS V14.01,2013-01-23 03:00:00,
2013-01-22 21:17:00,23.7,11.1,30.36,SE,136,0.0,3.0,58,0.00,,---,0.00,VWS V14.01,2013-01-23 03:17:00,
2013-01-22 21:22:00,23.3,11.1,30.36,SE,136,0.0,3.0,59,0.00,,---,0.00,VWS V14.01,2013-01-23 03:22:00,
2013-01-22 21:23:00,23.3,11.1,30.36,SE,136,0.0,3.0,59,0.00,,---,0.00,VWS V14.01,2013-01-23 03:23:00,
2013-01-22 21:27:00,22.9,11.1,30.36,SE,136,0.0,3.0,60,0.00,,---,0.00,VWS V14.01,2013-01-23 03:27:00,
2013-01-22 21:28:00,22.9,11.1,30.36,SE,136,0.0,3.0,60,0.00,,---,0.00,VWS V14.01,2013-01-23 03:28:00,
2013-01-22 21:30:00,22.9,11.1,30.36,SE,136,0.0,3.0,60,0.00,,---,0.00,VWS V14.01,2013-01-23 03:30:00,
2013-01-22 21:32:00,22.5,11.1,30.36,SE,136,0.0,0.0,61,0.00,,---,0.00,VWS V14.01,2013-01-23 03:32:00,
2013-01-22 21:33:00,22.5,11.1,30.36,SE,136,0.0,0.0,61,0.00,,---,0.00,VWS V14.01,2013-01-23 03:33:00,
2013-01-22 21:37:00,22.1,10.7,30.36,SE,136,0.0,0.0,61,0.00,,---,0.00,VWS V14.01,2013-01-23 03:37:00,
2013-01-22 21:38:00,22.1,10.7,30.36,SE,136,0.0,0.0,61,0.00,,---,0.00,VWS V14.01,2013-01-23 03:38:00,
2013-01-22 21:42:00,22.0,11.0,30.36,SE,136,1.0,2.0,62,0.00,,---,0.00,VWS V14.01,2013-01-23 03:42:00,
2013-01-22 21:43:00,22.0,11.0,30.36,SE,136,1.0,2.0,62,0.00,,---,0.00,VWS V14.01,2013-01-23 03:43:00,
2013-01-22 21:47:00,21.7,11.1,30.36,SE,136,1.0,2.0,63,0.00,,---,0.00,VWS V14.01,2013-01-23 03:47:00,
2013-01-22 21:48:00,21.8,11.2,30.36,SE,136,0.0,2.0,63,0.00,,---,0.00,VWS V14.01,2013-01-23 03:48:00,
2013-01-22 21:52:00,21.7,11.1,30.36,SE,136,1.0,2.0,63,0.00,,---,0.00,VWS V14.01,2013-01-23 03:52:00,
2013-01-22 21:53:00,21.6,11.0,30.36,SE,136,1.0,2.0,63,0.00,,---,0.00,VWS V14.01,2013-01-23 03:53:00,
2013-01-22 21:58:00,21.4,11.5,30.37,SE,136,1.0,2.0,65,0.00,,---,0.00,VWS V14.01,2013-01-23 03:58:00,
2013-01-22 21:59:00,21.3,11.4,30.36,SE,136,1.0,1.0,65,0.00,,---,0.00,VWS V14.01,2013-01-23 03:59:00,
2013-01-22 22:00:00,21.4,11.5,30.37,SE,136,1.0,2.0,65,0.00,,---,0.00,VWS V14.01,2013-01-23 04:00:00,
2013-01-22 22:03:00,21.2,11.3,30.37,SE,136,0.0,1.0,65,0.00,,---,0.00,VWS V14.01,2013-01-23 04:03:00,
2013-01-22 22:04:00,21.2,11.6,30.37,SE,136,0.0,1.0,66,0.00,,---,0.00,VWS V14.01,2013-01-23 04:04:00,
2013-01-22 22:08:00,21.2,11.6,30.36,SE,136,0.0,1.0,66,0.00,,---,0.00,VWS V14.01,2013-01-23 04:08:00,
2013-01-22 22:09:00,21.1,11.5,30.36,SE,136,0.0,1.0,66,0.00,,---,0.00,VWS V14.01,2013-01-23 04:09:00,
2013-01-22 22:13:00,20.9,11.7,30.36,SE,136,0.0,1.0,67,0.00,,---,0.00,VWS V14.01,2013-01-23 04:13:00,
2013-01-22 22:14:00,20.8,11.2,30.36,SE,136,0.0,1.0,66,0.00,,---,0.00,VWS V14.01,2013-01-23 04:14:00,
2013-01-22 22:15:00,20.7,11.5,30.37,SE,136,0.0,1.0,67,0.00,,---,0.00,VWS V14.01,2013-01-23 04:15:00,
2013-01-22 22:18:00,20.4,11.5,30.37,SE,136,0.0,1.0,68,0.00,,---,0.00,VWS V14.01,2013-01-23 04:18:00,
2013-01-22 22:19:00,20.4,11.9,30.36,SE,136,2.0,2.0,69,0.00,,---,0.00,VWS V14.01,2013-01-23 04:19:00,
2013-01-22 22:20:00,20.4,11.9,30.37,SE,136,2.0,2.0,69,0.00,,---,0.00,VWS V14.01,2013-01-23 04:20:00,
2013-01-22 22:23:00,20.2,12.3,30.37,SE,136,2.0,2.0,71,0.00,,---,0.00,VWS V14.01,2013-01-23 04:23:00,
2013-01-22 22:24:00,20.2,12.6,30.36,SE,136,1.0,2.0,72,0.00,,---,0.00,VWS V14.01,2013-01-23 04:24:00,
2013-01-22 22:25:00,20.2,12.6,30.37,SE,136,1.0,2.0,72,0.00,,---,0.00,VWS V14.01,2013-01-23 04:25:00,
2013-01-22 22:28:00,20.0,12.1,30.37,SE,136,2.0,2.0,71,0.00,,---,0.00,VWS V14.01,2013-01-23 04:28:00,
2013-01-22 22:29:00,20.0,12.1,30.37,SE,136,0.0,2.0,71,0.00,,---,0.00,VWS V14.01,2013-01-23 04:29:00,
2013-01-22 22:30:00,20.0,12.1,30.37,SE,136,0.0,2.0,71,0.00,,---,0.00,VWS V14.01,2013-01-23 04:30:00,
2013-01-22 22:33:00,20.0,12.4,30.37,SE,136,0.0,2.0,72,0.00,,---,0.00,VWS V14.01,2013-01-23 04:33:00,
2013-01-22 22:34:00,20.0,12.8,30.37,SE,136,1.0,2.0,73,0.00,,---,0.00,VWS V14.01,2013-01-23 04:34:00,
2013-01-22 22:35:00,20.0,12.8,30.37,SE,136,1.0,2.0,73,0.00,,---,0.00,VWS V14.01,2013-01-23 04:35:00,
2013-01-22 22:38:00,19.9,12.7,30.37,SE,136,1.0,2.0,73,0.00,,---,0.00,VWS V14.01,2013-01-23 04:38:00,
2013-01-22 22:39:00,19.7,12.5,30.37,SE,136,0.0,2.0,73,0.00,,---,0.00,VWS V14.01,2013-01-23 04:39:00,
2013-01-22 22:40:00,19.7,12.5,30.37,SE,136,0.0,2.0,73,0.00,,---,0.00,VWS V14.01,2013-01-23 04:40:00,
2013-01-22 22:43:00,19.5,12.3,30.37,SE,136,0.0,2.0,73,0.00,,---,0.00,VWS V14.01,2013-01-23 04:43:00,
2013-01-22 22:45:00,19.4,12.2,30.37,SE,136,0.0,2.0,73,0.00,,---,0.00,VWS V14.01,2013-01-23 04:45:00,
2013-01-22 22:48:00,19.2,12.3,30.37,SE,136,0.0,2.0,74,0.00,,---,0.00,VWS V14.01,2013-01-23 04:48:00,
2013-01-22 22:50:00,19.2,12.3,30.37,SE,136,0.0,2.0,74,0.00,,---,0.00,VWS V14.01,2013-01-23 04:50:00,
2013-01-22 22:54:00,19.2,12.6,30.37,SE,136,0.0,2.0,75,0.00,,---,0.00,VWS V14.01,2013-01-23 04:54:00,
2013-01-22 22:55:00,19.2,12.6,30.37,SE,136,0.0,2.0,75,0.00,,---,0.00,VWS V14.01,2013-01-23 04:55:00,
2013-01-22 23:00:00,19.1,12.5,30.36,SE,136,0.0,0.0,75,0.00,,---,0.00,VWS V14.01,2013-01-23 05:00:00,
2013-01-22 23:01:00,19.1,12.5,30.37,SE,136,0.0,0.0,75,0.00,,---,0.00,VWS V14.01,2013-01-23 05:01:00,
2013-01-22 23:05:00,19.0,12.7,30.36,SE,136,0.0,0.0,76,0.00,,---,0.00,VWS V14.01,2013-01-23 05:05:00,
2013-01-22 23:06:00,19.0,12.7,30.36,SE,136,0.0,0.0,76,0.00,,---,0.00,VWS V14.01,2013-01-23 05:06:00,
2013-01-22 23:07:00,19.0,12.4,30.36,SE,136,0.0,0.0,75,0.00,,---,0.00,VWS V14.01,2013-01-23 05:07:00,
2013-01-22 23:11:00,19.0,13.0,30.37,SE,136,0.0,0.0,77,0.00,,---,0.00,VWS V14.01,2013-01-23 05:11:00,
2013-01-22 23:13:00,19.0,12.7,30.37,SE,136,0.0,0.0,76,0.00,,---,0.00,VWS V14.01,2013-01-23 05:13:00,
2013-01-22 23:16:00,19.1,12.8,30.36,SE,136,0.0,0.0,76,0.00,,---,0.00,VWS V14.01,2013-01-23 05:16:00,
2013-01-22 23:17:00,19.2,12.9,30.36,SE,136,0.0,0.0,76,0.00,,---,0.00,VWS V14.01,2013-01-23 05:17:00,
2013-01-22 23:18:00,19.2,12.9,30.36,SE,136,0.0,0.0,76,0.00,,---,0.00,VWS V14.01,2013-01-23 05:18:00,
2013-01-22 23:21:00,19.2,12.9,30.36,SE,136,0.0,0.0,76,0.00,,---,0.00,VWS V14.01,2013-01-23 05:21:00,
2013-01-22 23:22:00,19.2,12.9,30.36,SE,136,0.0,0.0,76,0.00,,---,0.00,VWS V14.01,2013-01-23 05:22:00,
2013-01-22 23:23:00,19.1,12.8,30.36,SE,136,0.0,0.0,76,0.00,,---,0.00,VWS V14.01,2013-01-23 05:23:00,
2013-01-22 23:26:00,19.1,13.1,30.36,SE,136,0.0,0.0,77,0.00,,---,0.00,VWS V14.01,2013-01-23 05:26:00,
2013-01-22 23:27:00,19.1,13.1,30.36,SE,136,0.0,0.0,77,0.00,,---,0.00,VWS V14.01,2013-01-23 05:27:00,
2013-01-22 23:29:00,18.9,12.6,30.36,SE,136,0.0,0.0,76,0.00,,---,0.00,VWS V14.01,2013-01-23 05:29:00,
2013-01-22 23:30:00,19.0,12.7,30.36,SE,136,0.0,0.0,76,0.00,,---,0.00,VWS V14.01,2013-01-23 05:30:00,
2013-01-22 23:31:00,18.7,12.4,30.36,SE,136,0.0,0.0,76,0.00,,---,0.00,VWS V14.01,2013-01-23 05:31:00,
2013-01-22 23:32:00,18.7,12.4,30.36,SE,136,0.0,0.0,76,0.00,,---,0.00,VWS V14.01,2013-01-23 05:32:00,
2013-01-22 23:34:00,18.6,12.3,30.36,SE,136,0.0,0.0,76,0.00,,---,0.00,VWS V14.01,2013-01-23 05:34:00,
2013-01-22 23:36:00,18.4,12.7,30.36,SE,136,0.0,0.0,78,0.00,,---,0.00,VWS V14.01,2013-01-23 05:36:00,
2013-01-22 23:37:00,18.4,12.7,30.36,SE,136,0.0,0.0,78,0.00,,---,0.00,VWS V14.01,2013-01-23 05:37:00,
2013-01-22 23:38:00,18.3,12.6,30.36,SE,136,0.0,0.0,78,0.00,,---,0.00,VWS V14.01,2013-01-23 05:38:00,
2013-01-22 23:39:00,18.3,12.6,30.36,SE,136,0.0,0.0,78,0.00,,---,0.00,VWS V14.01,2013-01-23 05:39:00,
2013-01-22 23:42:00,18.2,12.8,30.36,SE,136,0.0,0.0,79,0.00,,---,0.00,VWS V14.01,2013-01-23 05:42:00,
2013-01-22 23:43:00,18.0,12.6,30.35,SE,136,0.0,0.0,79,0.00,,---,0.00,VWS V14.01,2013-01-23 05:43:00,
2013-01-22 23:44:00,18.0,12.3,30.36,SE,136,2.0,2.0,78,0.00,,---,0.00,VWS V14.01,2013-01-23 05:44:00,
2013-01-22 23:47:00,18.0,12.6,30.36,SE,136,1.0,2.0,79,0.00,,---,0.00,VWS V14.01,2013-01-23 05:47:00,
2013-01-22 23:48:00,18.0,12.6,30.35,SE,136,1.0,2.0,79,0.00,,---,0.00,VWS V14.01,2013-01-23 05:48:00,